Time,TemperatureF,DewpointF,PressureIn,WindDirection,WindDirectionDegrees,WindSpeedMPH,WindSpeedGustMPH,Humidity,HourlyPrecipIn,Conditions,Clouds,dailyrainin,SoftwareType,DateUTC
2013-03-19 00:00:00,31.8,28.1,29.65,West,276,2.0,17.0,86,0.00,,---,0.00,VWS V14.00,2013-03-19 04:00:00,
2013-03-19 00:01:00,31.8,28.4,29.65,West,274,6.0,19.0,87,0.00,,---,0.00,VWS V14.00,2013-03-19 04:01:00,
2013-03-19 00:05:00,31.6,28.2,29.65,West,274,19.0,22.0,87,0.00,,---,0.00,VWS V14.00,2013-03-19 04:05:00,
2013-03-19 00:06:00,31.5,28.1,29.65,West,277,14.0,22.0,87,0.00,,---,0.00,VWS V14.00,2013-03-19 04:06:00,
2013-03-19 00:09:00,31.3,27.9,29.65,NW,309,17.0,23.0,87,0.00,,---,0.00,VWS V14.00,2013-03-19 04:09:00,
2013-03-19 00:12:00,31.2,27.8,29.65,WNW,286,2.0,23.0,87,0.00,,---,0.00,VWS V14.00,2013-03-19 04:12:00,
2013-03-19 00:16:00,31.2,27.8,29.65,WNW,299,1.0,23.0,87,0.00,,---,0.00,VWS V14.00,2013-03-19 04:16:00,
2013-03-19 00:17:00,31.2,27.8,29.65,West,276,4.0,23.0,87,0.00,,---,0.00,VWS V14.00,2013-03-19 04:17:00,
2013-03-19 00:18:00,31.1,27.7,29.65,West,271,3.0,23.0,87,0.00,,---,0.00,VWS V14.00,2013-03-19 04:18:00,
2013-03-19 00:21:00,31.1,27.7,29.65,NW,306,5.0,23.0,87,0.00,,---,0.00,VWS V14.00,2013-03-19 04:21:00,
2013-03-19 00:22:00,31.1,27.7,29.65,West,275,5.0,23.0,87,0.00,,---,0.00,VWS V14.00,2013-03-19 04:22:00,
2013-03-19 00:26:00,30.9,27.5,29.66,West,270,2.0,23.0,87,0.00,,---,0.00,VWS V14.00,2013-03-19 04:26:00,
2013-03-19 00:27:00,30.9,27.5,29.66,West,264,3.0,23.0,87,0.00,,---,0.00,VWS V14.00,2013-03-19 04:27:00,
2013-03-19 00:28:00,30.9,27.5,29.66,WNW,303,16.0,23.0,87,0.00,,---,0.00,VWS V14.00,2013-03-19 04:28:00,
2013-03-19 00:31:00,30.8,27.4,29.66,West,275,13.0,20.0,87,0.00,,---,0.00,VWS V14.00,2013-03-19 04:31:00,
2013-03-19 00:33:00,30.7,27.0,29.66,WNW,298,11.0,22.0,86,0.00,,---,0.00,VWS V14.00,2013-03-19 04:33:00,
2013-03-19 00:35:00,30.6,26.9,29.66,West,276,14.0,22.0,86,0.00,,---,0.00,VWS V14.00,2013-03-19 04:35:00,
2013-03-19 00:39:00,30.4,26.7,29.66,West,263,7.0,25.0,86,0.00,,---,0.00,VWS V14.00,2013-03-19 04:39:00,
2013-03-19 00:40:00,30.4,26.4,29.66,WNW,300,16.0,25.0,85,0.00,,---,0.00,VWS V14.00,2013-03-19 04:40:00,
2013-03-19 00:41:00,30.4,26.4,29.66,WNW,288,6.0,25.0,85,0.00,,---,0.00,VWS V14.00,2013-03-19 04:41:00,
2013-03-19 00:44:00,30.3,26.6,29.67,WSW,249,16.0,25.0,86,0.00,,---,0.00,VWS V14.00,2013-03-19 04:44:00,
2013-03-19 00:47:00,30.2,26.5,29.67,West,273,2.0,25.0,86,0.00,,---,0.00,VWS V14.00,2013-03-19 04:47:00,
2013-03-19 00:49:00,30.0,26.3,29.66,WNW,302,10.0,25.0,86,0.00,,---,0.00,VWS V14.00,2013-03-19 04:49:00,
2013-03-19 00:50:00,30.0,26.3,29.67,West,277,0.0,25.0,86,0.00,,---,0.00,VWS V14.00,2013-03-19 04:50:00,
2013-03-19 00:52:00,29.9,26.2,29.67,WNW,294,15.0,25.0,86,0.00,,---,0.00,VWS V14.00,2013-03-19 04:52:00,
2013-03-19 00:57:00,29.7,25.8,29.67,West,275,16.0,25.0,85,0.00,,---,0.00,VWS V14.00,2013-03-19 04:57:00,
2013-03-19 00:58:00,29.6,25.6,29.67,WNW,297,10.0,25.0,85,0.00,,---,0.00,VWS V14.00,2013-03-19 04:58:00,
2013-03-19 01:00:00,29.4,25.5,29.67,West,267,13.0,21.0,85,0.00,,---,0.00,VWS V14.00,2013-03-19 05:00:00,
2013-03-19 01:03:00,29.3,25.4,29.67,West,279,18.0,26.0,85,0.00,,---,0.00,VWS V14.00,2013-03-19 05:03:00,
2013-03-19 01:04:00,29.2,25.3,29.67,West,263,11.0,30.0,85,0.00,,---,0.00,VWS V14.00,2013-03-19 05:04:00,
2013-03-19 01:05:00,29.1,25.2,29.67,West,281,19.0,30.0,85,0.00,,---,0.00,VWS V14.00,2013-03-19 05:05:00,
2013-03-19 01:08:00,28.9,24.7,29.67,WNW,282,21.0,30.0,84,0.00,,---,0.00,VWS V14.00,2013-03-19 05:08:00,
2013-03-19 01:09:00,28.9,24.7,29.67,West,275,25.0,30.0,84,0.00,,---,0.00,VWS V14.00,2013-03-19 05:09:00,
2013-03-19 01:10:00,28.9,24.7,29.67,WSW,243,18.0,30.0,84,0.00,,---,0.00,VWS V14.00,2013-03-19 05:10:00,
2013-03-19 01:14:00,28.8,24.6,29.67,West,266,3.0,30.0,84,0.00,,---,0.00,VWS V14.00,2013-03-19 05:14:00,
2013-03-19 01:15:00,28.8,24.6,29.67,West,276,20.0,30.0,84,0.00,,---,0.00,VWS V14.00,2013-03-19 05:15:00,
2013-03-19 01:16:00,28.8,24.6,29.67,West,277,4.0,30.0,84,0.00,,---,0.00,VWS V14.00,2013-03-19 05:16:00,
2013-03-19 01:19:00,28.7,24.2,29.67,West,279,13.0,30.0,83,0.00,,---,0.00,VWS V14.00,2013-03-19 05:19:00,
2013-03-19 01:20:00,28.7,24.2,29.67,NW,311,19.0,30.0,83,0.00,,---,0.00,VWS V14.00,2013-03-19 05:20:00,
2013-03-19 01:21:00,28.7,24.2,29.67,WNW,302,16.0,30.0,83,0.00,,---,0.00,VWS V14.00,2013-03-19 05:21:00,
2013-03-19 01:23:00,28.7,24.2,29.67,West,271,16.0,30.0,83,0.00,,---,0.00,VWS V14.00,2013-03-19 05:23:00,
2013-03-19 01:25:00,28.6,24.1,29.67,West,269,6.0,30.0,83,0.00,,---,0.00,VWS V14.00,2013-03-19 05:25:00,
2013-03-19 01:26:00,28.6,24.1,29.67,West,271,6.0,30.0,83,0.00,,---,0.00,VWS V14.00,2013-03-19 05:26:00,
2013-03-19 01:27:00,28.6,24.1,29.67,WNW,286,21.0,30.0,83,0.00,,---,0.00,VWS V14.00,2013-03-19 05:27:00,
2013-03-19 01:28:00,28.5,24.0,29.67,WNW,282,17.0,30.0,83,0.00,,---,0.00,VWS V14.00,2013-03-19 05:28:00,
2013-03-19 01:32:00,28.5,24.0,29.68,West,271,15.0,19.0,83,0.00,,---,0.00,VWS V14.00,2013-03-19 05:32:00,
2013-03-19 01:33:00,28.4,23.9,29.68,West,273,5.0,19.0,83,0.00,,---,0.00,VWS V14.00,2013-03-19 05:33:00,
2013-03-19 01:37:00,28.3,23.5,29.68,WNW,297,21.0,26.0,82,0.00,,---,0.00,VWS V14.00,2013-03-19 05:37:00,
2013-03-19 01:38:00,28.2,23.4,29.68,WNW,283,12.0,26.0,82,0.00,,---,0.00,VWS V14.00,2013-03-19 05:38:00,
2013-03-19 01:39:00,28.2,23.4,29.68,West,275,5.0,26.0,82,0.00,,---,0.00,VWS V14.00,2013-03-19 05:39:00,
2013-03-19 01:42:00,28.1,23.3,29.68,West,277,15.0,26.0,82,0.00,,---,0.00,VWS V14.00,2013-03-19 05:42:00,
2013-03-19 01:44:00,28.1,23.3,29.68,West,263,5.0,26.0,82,0.00,,---,0.00,VWS V14.00,2013-03-19 05:44:00,
2013-03-19 01:45:00,28.0,23.2,29.68,West,269,2.0,26.0,82,0.00,,---,0.00,VWS V14.00,2013-03-19 05:45:00,
2013-03-19 01:47:00,28.0,23.2,29.68,West,279,15.0,26.0,82,0.00,,---,0.00,VWS V14.00,2013-03-19 05:47:00,
2013-03-19 01:48:00,27.9,23.1,29.68,SSW,202,4.0,26.0,82,0.00,,---,0.00,VWS V14.00,2013-03-19 05:48:00,
2013-03-19 01:50:00,27.7,22.9,29.69,West,271,19.0,26.0,82,0.00,,---,0.00,VWS V14.00,2013-03-19 05:50:00,
2013-03-19 01:53:00,27.5,22.5,29.69,WSW,256,13.0,26.0,81,0.00,,---,0.00,VWS V14.00,2013-03-19 05:53:00,
2013-03-19 01:55:00,27.3,22.2,29.69,West,277,13.0,31.0,81,0.00,,---,0.00,VWS V14.00,2013-03-19 05:55:00,
2013-03-19 01:56:00,27.3,22.2,29.69,WNW,287,14.0,31.0,81,0.00,,---,0.00,VWS V14.00,2013-03-19 05:56:00,
2013-03-19 01:58:00,27.2,21.9,29.69,WNW,283,5.0,6.0,80,0.00,,---,0.00,VWS V14.00,2013-03-19 05:58:00,
2013-03-19 02:00:00,27.2,21.9,29.69,West,259,10.0,26.0,80,0.00,,---,0.00,VWS V14.00,2013-03-19 06:00:00,
2013-03-19 02:01:00,27.1,21.8,29.69,West,271,11.0,26.0,80,0.00,,---,0.00,VWS V14.00,2013-03-19 06:01:00,
2013-03-19 02:05:00,27.0,21.7,29.69,WNW,291,17.0,26.0,80,0.00,,---,0.00,VWS V14.00,2013-03-19 06:05:00,
2013-03-19 02:07:00,27.0,21.4,29.69,West,271,6.0,26.0,79,0.00,,---,0.00,VWS V14.00,2013-03-19 06:07:00,
2013-03-19 02:11:00,27.0,21.7,29.69,West,264,10.0,26.0,80,0.00,,---,0.00,VWS V14.00,2013-03-19 06:11:00,
2013-03-19 02:12:00,26.9,21.6,29.69,West,273,13.0,26.0,80,0.00,,---,0.00,VWS V14.00,2013-03-19 06:12:00,
2013-03-19 02:13:00,27.0,21.4,29.69,West,271,19.0,26.0,79,0.00,,---,0.00,VWS V14.00,2013-03-19 06:13:00,
2013-03-19 02:15:00,26.9,21.3,29.69,WNW,282,15.0,26.0,79,0.00,,---,0.00,VWS V14.00,2013-03-19 06:15:00,
2013-03-19 02:16:00,26.8,21.2,29.69,West,261,4.0,26.0,79,0.00,,---,0.00,VWS V14.00,2013-03-19 06:16:00,
2013-03-19 02:17:00,26.8,21.2,29.69,West,276,13.0,26.0,79,0.00,,---,0.00,VWS V14.00,2013-03-19 06:17:00,
2013-03-19 02:21:00,26.7,21.1,29.69,West,272,14.0,30.0,79,0.00,,---,0.00,VWS V14.00,2013-03-19 06:21:00,
2013-03-19 02:22:00,26.7,21.1,29.69,WNW,288,15.0,30.0,79,0.00,,---,0.00,VWS V14.00,2013-03-19 06:22:00,
2013-03-19 02:23:00,26.7,21.1,29.69,West,259,12.0,30.0,79,0.00,,---,0.00,VWS V14.00,2013-03-19 06:23:00,
2013-03-19 02:26:00,26.6,21.0,29.69,West,279,10.0,30.0,79,0.00,,---,0.00,VWS V14.00,2013-03-19 06:26:00,
2013-03-19 02:27:00,26.6,21.0,29.69,West,264,4.0,30.0,79,0.00,,---,0.00,VWS V14.00,2013-03-19 06:27:00,
2013-03-19 02:28:00,26.6,21.0,29.69,WNW,298,2.0,30.0,79,0.00,,---,0.00,VWS V14.00,2013-03-19 06:28:00,
2013-03-19 02:29:00,26.6,21.0,29.69,West,273,15.0,15.0,79,0.00,,---,0.00,VWS V14.00,2013-03-19 06:29:00,
2013-03-19 02:32:00,26.5,20.9,29.69,WNW,288,19.0,27.0,79,0.00,,---,0.00,VWS V14.00,2013-03-19 06:32:00,
2013-03-19 02:34:00,26.5,20.9,29.69,West,265,5.0,27.0,79,0.00,,---,0.00,VWS V14.00,2013-03-19 06:34:00,
2013-03-19 02:35:00,26.5,20.9,29.69,West,275,14.0,27.0,79,0.00,,---,0.00,VWS V14.00,2013-03-19 06:35:00,
2013-03-19 02:37:00,26.5,20.9,29.69,West,271,6.0,27.0,79,0.00,,---,0.00,VWS V14.00,2013-03-19 06:37:00,
2013-03-19 02:41:00,26.5,21.2,29.69,West,267,1.0,27.0,80,0.00,,---,0.00,VWS V14.00,2013-03-19 06:41:00,
2013-03-19 02:42:00,26.5,21.2,29.69,WNW,287,11.0,27.0,80,0.00,,---,0.00,VWS V14.00,2013-03-19 06:42:00,
2013-03-19 02:45:00,26.4,21.1,29.69,NW,306,11.0,27.0,80,0.00,,---,0.00,VWS V14.00,2013-03-19 06:45:00,
2013-03-19 02:46:00,26.5,21.2,29.69,WNW,299,6.0,27.0,80,0.00,,---,0.00,VWS V14.00,2013-03-19 06:46:00,
2013-03-19 02:47:00,26.5,21.2,29.69,NW,313,6.0,27.0,80,0.00,,---,0.00,VWS V14.00,2013-03-19 06:47:00,
2013-03-19 02:48:00,26.4,21.1,29.69,WNW,291,22.0,27.0,80,0.00,,---,0.00,VWS V14.00,2013-03-19 06:48:00,
2013-03-19 02:51:00,26.2,20.3,29.69,West,273,11.0,27.0,78,0.00,,---,0.00,VWS V14.00,2013-03-19 06:51:00,
2013-03-19 02:53:00,26.2,20.3,29.69,WNW,300,14.0,27.0,78,0.00,,---,0.00,VWS V14.00,2013-03-19 06:53:00,
2013-03-19 02:55:00,26.2,20.0,29.69,WNW,286,21.0,27.0,77,0.00,,---,0.00,VWS V14.00,2013-03-19 06:55:00,
2013-03-19 02:58:00,26.1,19.9,29.69,NW,315,17.0,27.0,77,0.00,,---,0.00,VWS V14.00,2013-03-19 06:58:00,
2013-03-19 02:59:00,26.0,19.8,29.69,West,273,9.0,18.0,77,0.00,,---,0.00,VWS V14.00,2013-03-19 06:59:00,
2013-03-19 03:00:00,26.0,19.8,29.69,WNW,288,17.0,18.0,77,0.00,,---,0.00,VWS V14.00,2013-03-19 07:00:00,
2013-03-19 03:01:00,26.0,19.8,29.69,West,280,4.0,18.0,77,0.00,,---,0.00,VWS V14.00,2013-03-19 07:01:00,
2013-03-19 03:03:00,26.0,19.8,29.69,WNW,288,10.0,18.0,77,0.00,,---,0.00,VWS V14.00,2013-03-19 07:03:00,
2013-03-19 03:05:00,26.0,19.8,29.69,West,264,5.0,21.0,77,0.00,,---,0.00,VWS V14.00,2013-03-19 07:05:00,
2013-03-19 03:07:00,25.9,19.7,29.69,NW,314,13.0,21.0,77,0.00,,---,0.00,VWS V14.00,2013-03-19 07:07:00,
2013-03-19 03:08:00,25.9,20.0,29.69,WNW,299,12.0,21.0,78,0.00,,---,0.00,VWS V14.00,2013-03-19 07:08:00,
2013-03-19 03:09:00,25.8,19.9,29.69,WNW,295,7.0,21.0,78,0.00,,---,0.00,VWS V14.00,2013-03-19 07:09:00,
2013-03-19 03:12:00,25.8,19.9,29.69,WNW,290,10.0,21.0,78,0.00,,---,0.00,VWS V14.00,2013-03-19 07:12:00,
2013-03-19 03:13:00,25.8,20.2,29.69,West,280,20.0,23.0,79,0.00,,---,0.00,VWS V14.00,2013-03-19 07:13:00,
2013-03-19 03:14:00,25.7,20.1,29.69,West,273,11.0,23.0,79,0.00,,---,0.00,VWS V14.00,2013-03-19 07:14:00,
2013-03-19 03:15:00,25.7,20.1,29.69,West,272,15.0,23.0,79,0.00,,---,0.00,VWS V14.00,2013-03-19 07:15:00,
2013-03-19 03:17:00,25.7,20.1,29.69,WNW,296,11.0,23.0,79,0.00,,---,0.00,VWS V14.00,2013-03-19 07:17:00,
2013-03-19 03:19:00,25.6,20.0,29.69,West,269,7.0,23.0,79,0.00,,---,0.00,VWS V14.00,2013-03-19 07:19:00,
2013-03-19 03:20:00,25.6,20.0,29.69,West,264,4.0,23.0,79,0.00,,---,0.00,VWS V14.00,2013-03-19 07:20:00,
2013-03-19 03:23:00,25.6,20.0,29.70,West,271,13.0,23.0,79,0.00,,---,0.00,VWS V14.00,2013-03-19 07:23:00,
2013-03-19 03:25:00,25.6,20.0,29.69,West,263,14.0,23.0,79,0.00,,---,0.00,VWS V14.00,2013-03-19 07:25:00,
2013-03-19 03:26:00,25.6,20.0,29.70,WNW,286,11.0,23.0,79,0.00,,---,0.00,VWS V14.00,2013-03-19 07:26:00,
2013-03-19 03:27:00,25.6,20.0,29.70,West,279,7.0,23.0,79,0.00,,---,0.00,VWS V14.00,2013-03-19 07:27:00,
2013-03-19 03:29:00,25.6,20.0,29.70,West,271,1.0,12.0,79,0.00,,---,0.00,VWS V14.00,2013-03-19 07:29:00,
2013-03-19 03:31:00,25.6,20.0,29.70,WNW,295,11.0,19.0,79,0.00,,---,0.00,VWS V14.00,2013-03-19 07:31:00,
2013-03-19 03:32:00,25.6,20.0,29.70,West,273,16.0,21.0,79,0.00,,---,0.00,VWS V14.00,2013-03-19 07:32:00,
2013-03-19 03:37:00,25.5,19.6,29.70,WNW,296,15.0,27.0,78,0.00,,---,0.00,VWS V14.00,2013-03-19 07:37:00,
2013-03-19 03:38:00,25.5,19.6,29.70,WSW,252,7.0,27.0,78,0.00,,---,0.00,VWS V14.00,2013-03-19 07:38:00,
2013-03-19 03:39:00,25.5,19.6,29.70,WNW,303,5.0,27.0,78,0.00,,---,0.00,VWS V14.00,2013-03-19 07:39:00,
2013-03-19 03:42:00,25.5,19.6,29.70,West,267,13.0,27.0,78,0.00,,---,0.00,VWS V14.00,2013-03-19 07:42:00,
2013-03-19 03:43:00,25.5,19.6,29.70,WNW,300,14.0,27.0,78,0.00,,---,0.00,VWS V14.00,2013-03-19 07:43:00,
2013-03-19 03:44:00,25.4,19.5,29.70,NW,319,13.0,27.0,78,0.00,,---,0.00,VWS V14.00,2013-03-19 07:44:00,
2013-03-19 03:45:00,25.4,19.5,29.70,West,265,12.0,27.0,78,0.00,,---,0.00,VWS V14.00,2013-03-19 07:45:00,
2013-03-19 03:49:00,25.3,19.1,29.70,WNW,284,10.0,27.0,77,0.00,,---,0.00,VWS V14.00,2013-03-19 07:49:00,
2013-03-19 03:50:00,25.2,19.0,29.70,West,279,16.0,27.0,77,0.00,,---,0.00,VWS V14.00,2013-03-19 07:50:00,
2013-03-19 03:52:00,25.2,19.0,29.70,WNW,298,16.0,29.0,77,0.00,,---,0.00,VWS V14.00,2013-03-19 07:52:00,
2013-03-19 03:55:00,25.2,19.0,29.70,West,277,14.0,29.0,77,0.00,,---,0.00,VWS V14.00,2013-03-19 07:55:00,
2013-03-19 03:57:00,25.2,19.0,29.70,West,268,15.0,29.0,77,0.00,,---,0.00,VWS V14.00,2013-03-19 07:57:00,
2013-03-19 03:58:00,25.2,19.0,29.70,West,278,11.0,29.0,77,0.00,,---,0.00,VWS V14.00,2013-03-19 07:58:00,
2013-03-19 04:00:00,25.2,19.0,29.70,WNW,284,13.0,19.0,77,0.00,,---,0.00,VWS V14.00,2013-03-19 08:00:00,
2013-03-19 04:03:00,25.1,18.9,29.70,West,277,15.0,20.0,77,0.00,,---,0.00,VWS V14.00,2013-03-19 08:03:00,
2013-03-19 04:04:00,25.1,19.2,29.70,West,281,12.0,20.0,78,0.00,,---,0.00,VWS V14.00,2013-03-19 08:04:00,
2013-03-19 04:07:00,25.0,19.1,29.70,West,281,13.0,20.0,78,0.00,,---,0.00,VWS V14.00,2013-03-19 08:07:00,
2013-03-19 04:08:00,25.0,19.1,29.70,WNW,291,13.0,23.0,78,0.00,,---,0.00,VWS V14.00,2013-03-19 08:08:00,
2013-03-19 04:09:00,24.9,19.3,29.70,WNW,283,5.0,23.0,79,0.00,,---,0.00,VWS V14.00,2013-03-19 08:09:00,
2013-03-19 04:10:00,24.9,19.3,29.70,West,260,10.0,23.0,79,0.00,,---,0.00,VWS V14.00,2013-03-19 08:10:00,
2013-03-19 04:14:00,24.8,19.2,29.70,West,275,13.0,23.0,79,0.00,,---,0.00,VWS V14.00,2013-03-19 08:14:00,
2013-03-19 04:16:00,24.8,19.2,29.70,NW,304,13.0,23.0,79,0.00,,---,0.00,VWS V14.00,2013-03-19 08:16:00,
2013-03-19 04:17:00,24.8,19.2,29.70,West,279,23.0,23.0,79,0.00,,---,0.00,VWS V14.00,2013-03-19 08:17:00,
2013-03-19 04:20:00,24.7,19.1,29.70,West,273,13.0,28.0,79,0.00,,---,0.00,VWS V14.00,2013-03-19 08:20:00,
2013-03-19 04:22:00,24.7,19.1,29.70,WNW,291,17.0,28.0,79,0.00,,---,0.00,VWS V14.00,2013-03-19 08:22:00,
2013-03-19 04:23:00,24.7,18.8,29.70,West,263,12.0,28.0,78,0.00,,---,0.00,VWS V14.00,2013-03-19 08:23:00,
2013-03-19 04:24:00,24.7,19.1,29.70,West,275,0.0,28.0,79,0.00,,---,0.00,VWS V14.00,2013-03-19 08:24:00,
2013-03-19 04:25:00,24.7,19.1,29.70,West,272,10.0,28.0,79,0.00,,---,0.00,VWS V14.00,2013-03-19 08:25:00,
2013-03-19 04:27:00,24.6,19.0,29.70,West,267,3.0,28.0,79,0.00,,---,0.00,VWS V14.00,2013-03-19 08:27:00,
2013-03-19 04:29:00,24.6,18.7,29.70,WNW,294,6.0,18.0,78,0.00,,---,0.00,VWS V14.00,2013-03-19 08:29:00,
2013-03-19 04:32:00,24.7,19.1,29.70,West,265,20.0,20.0,79,0.00,,---,0.00,VWS V14.00,2013-03-19 08:32:00,
2013-03-19 04:33:00,24.6,18.7,29.70,West,268,21.0,24.0,78,0.00,,---,0.00,VWS V14.00,2013-03-19 08:33:00,
2013-03-19 04:35:00,24.6,18.7,29.70,WNW,284,10.0,24.0,78,0.00,,---,0.00,VWS V14.00,2013-03-19 08:35:00,
2013-03-19 04:37:00,24.6,18.7,29.70,West,265,9.0,24.0,78,0.00,,---,0.00,VWS V14.00,2013-03-19 08:37:00,
2013-03-19 04:39:00,24.6,18.7,29.70,West,279,10.0,24.0,78,0.00,,---,0.00,VWS V14.00,2013-03-19 08:39:00,
2013-03-19 04:40:00,24.5,18.6,29.70,West,266,6.0,24.0,78,0.00,,---,0.00,VWS V14.00,2013-03-19 08:40:00,
2013-03-19 04:43:00,24.5,18.6,29.70,West,271,1.0,24.0,78,0.00,,---,0.00,VWS V14.00,2013-03-19 08:43:00,
2013-03-19 04:44:00,24.5,18.9,29.70,West,265,6.0,24.0,79,0.00,,---,0.00,VWS V14.00,2013-03-19 08:44:00,
2013-03-19 04:46:00,24.4,18.8,29.70,WNW,292,7.0,24.0,79,0.00,,---,0.00,VWS V14.00,2013-03-19 08:46:00,
2013-03-19 04:48:00,24.3,18.7,29.70,West,275,15.0,24.0,79,0.00,,---,0.00,VWS V14.00,2013-03-19 08:48:00,
2013-03-19 04:49:00,24.3,19.0,29.70,WNW,297,12.0,24.0,80,0.00,,---,0.00,VWS V14.00,2013-03-19 08:49:00,
2013-03-19 04:52:00,24.2,19.2,29.70,WNW,288,7.0,24.0,81,0.00,,---,0.00,VWS V14.00,2013-03-19 08:52:00,
2013-03-19 04:53:00,24.2,19.2,29.70,NW,315,7.0,24.0,81,0.00,,---,0.00,VWS V14.00,2013-03-19 08:53:00,
2013-03-19 04:55:00,24.1,19.1,29.70,West,277,1.0,24.0,81,0.00,,---,0.00,VWS V14.00,2013-03-19 08:55:00,
2013-03-19 04:57:00,24.2,19.2,29.70,West,277,1.0,24.0,81,0.00,,---,0.00,VWS V14.00,2013-03-19 08:57:00,
2013-03-19 04:59:00,24.1,19.1,29.70,West,275,13.0,14.0,81,0.00,,---,0.00,VWS V14.00,2013-03-19 08:59:00,
2013-03-19 05:00:00,24.1,19.1,29.70,WNW,290,11.0,14.0,81,0.00,,---,0.00,VWS V14.00,2013-03-19 09:00:00,
2013-03-19 05:03:00,24.0,19.0,29.70,West,279,6.0,15.0,81,0.00,,---,0.00,VWS V14.00,2013-03-19 09:03:00,
2013-03-19 05:05:00,23.9,18.9,29.70,WNW,294,2.0,15.0,81,0.00,,---,0.00,VWS V14.00,2013-03-19 09:05:00,
2013-03-19 05:06:00,23.9,18.9,29.70,WNW,287,10.0,18.0,81,0.00,,---,0.00,VWS V14.00,2013-03-19 09:06:00,
2013-03-19 05:07:00,23.9,19.2,29.70,WSW,248,5.0,18.0,82,0.00,,---,0.00,VWS V14.00,2013-03-19 09:07:00,
2013-03-19 05:12:00,23.9,19.2,29.70,West,264,6.0,18.0,82,0.00,,---,0.00,VWS V14.00,2013-03-19 09:12:00,
2013-03-19 05:13:00,23.8,19.1,29.70,West,277,15.0,20.0,82,0.00,,---,0.00,VWS V14.00,2013-03-19 09:13:00,
2013-03-19 05:15:00,23.8,19.1,29.70,West,281,13.0,20.0,82,0.00,,---,0.00,VWS V14.00,2013-03-19 09:15:00,
2013-03-19 05:19:00,23.7,18.7,29.70,WNW,288,12.0,21.0,81,0.00,,---,0.00,VWS V14.00,2013-03-19 09:19:00,
2013-03-19 05:20:00,23.7,18.7,29.70,WNW,284,15.0,21.0,81,0.00,,---,0.00,VWS V14.00,2013-03-19 09:20:00,
2013-03-19 05:22:00,23.7,19.0,29.70,WNW,283,14.0,21.0,82,0.00,,---,0.00,VWS V14.00,2013-03-19 09:22:00,
2013-03-19 05:26:00,23.7,18.7,29.70,NW,308,16.0,21.0,81,0.00,,---,0.00,VWS V14.00,2013-03-19 09:26:00,
2013-03-19 05:27:00,23.7,18.7,29.70,WSW,254,5.0,21.0,81,0.00,,---,0.00,VWS V14.00,2013-03-19 09:27:00,
2013-03-19 05:28:00,23.8,18.8,29.70,WNW,288,16.0,21.0,81,0.00,,---,0.00,VWS V14.00,2013-03-19 09:28:00,
2013-03-19 05:30:00,23.8,18.8,29.70,West,277,14.0,25.0,81,0.00,,---,0.00,VWS V14.00,2013-03-19 09:30:00,
2013-03-19 05:31:00,23.8,18.5,29.70,West,277,16.0,25.0,80,0.00,,---,0.00,VWS V14.00,2013-03-19 09:31:00,
2013-03-19 05:33:00,23.9,18.6,29.70,West,260,13.0,25.0,80,0.00,,---,0.00,VWS V14.00,2013-03-19 09:33:00,
2013-03-19 05:34:00,23.9,18.6,29.70,West,277,12.0,25.0,80,0.00,,---,0.00,VWS V14.00,2013-03-19 09:34:00,
2013-03-19 05:35:00,23.9,18.6,29.70,West,280,3.0,25.0,80,0.00,,---,0.00,VWS V14.00,2013-03-19 09:35:00,
2013-03-19 05:37:00,23.9,18.6,29.70,West,273,0.0,25.0,80,0.00,,---,0.00,VWS V14.00,2013-03-19 09:37:00,
2013-03-19 05:41:00,23.9,18.6,29.71,West,277,10.0,25.0,80,0.00,,---,0.00,VWS V14.00,2013-03-19 09:41:00,
2013-03-19 05:42:00,23.9,18.6,29.71,West,279,9.0,25.0,80,0.00,,---,0.00,VWS V14.00,2013-03-19 09:42:00,
2013-03-19 05:43:00,23.9,18.6,29.71,NW,313,14.0,25.0,80,0.00,,---,0.00,VWS V14.00,2013-03-19 09:43:00,
2013-03-19 05:44:00,23.9,18.6,29.71,WNW,288,13.0,25.0,80,0.00,,---,0.00,VWS V14.00,2013-03-19 09:44:00,
2013-03-19 05:48:00,23.8,18.5,29.71,WNW,287,16.0,25.0,80,0.00,,---,0.00,VWS V14.00,2013-03-19 09:48:00,
2013-03-19 05:49:00,23.8,18.5,29.71,West,271,12.0,25.0,80,0.00,,---,0.00,VWS V14.00,2013-03-19 09:49:00,
2013-03-19 05:50:00,23.8,18.5,29.71,WNW,288,15.0,25.0,80,0.00,,---,0.00,VWS V14.00,2013-03-19 09:50:00,
2013-03-19 05:51:00,23.8,18.5,29.71,West,275,6.0,25.0,80,0.00,,---,0.00,VWS V14.00,2013-03-19 09:51:00,
2013-03-19 05:53:00,23.7,18.5,29.72,West,277,12.0,25.0,80,0.00,,---,0.00,VWS V14.00,2013-03-19 09:53:00,
2013-03-19 05:54:00,23.6,18.4,29.71,West,273,12.0,25.0,80,0.00,,---,0.00,VWS V14.00,2013-03-19 09:54:00,
2013-03-19 05:58:00,23.6,18.4,29.71,West,273,8.0,25.0,80,0.00,,---,0.00,VWS V14.00,2013-03-19 09:58:00,
2013-03-19 06:00:00,23.6,18.4,29.71,West,281,13.0,22.0,80,0.00,,---,0.00,VWS V14.00,2013-03-19 10:00:00,
2013-03-19 06:03:00,23.6,18.4,29.72,WNW,286,13.0,22.0,80,0.00,,---,0.00,VWS V14.00,2013-03-19 10:03:00,
2013-03-19 06:07:00,23.5,18.2,29.72,West,272,14.0,22.0,80,0.00,,---,0.00,VWS V14.00,2013-03-19 10:07:00,
2013-03-19 06:09:00,23.4,18.1,29.72,NW,306,14.0,22.0,80,0.00,,---,0.00,VWS V14.00,2013-03-19 10:09:00,
2013-03-19 06:10:00,23.4,18.1,29.72,West,263,13.0,22.0,80,0.00,,---,0.00,VWS V14.00,2013-03-19 10:10:00,
2013-03-19 06:12:00,23.4,18.1,29.72,WNW,295,12.0,22.0,80,0.00,,---,0.00,VWS V14.00,2013-03-19 10:12:00,
2013-03-19 06:14:00,23.4,17.9,29.72,WNW,298,15.0,22.0,79,0.00,,---,0.00,VWS V14.00,2013-03-19 10:14:00,
2013-03-19 06:16:00,23.4,17.9,29.72,West,265,10.0,22.0,79,0.00,,---,0.00,VWS V14.00,2013-03-19 10:16:00,
2013-03-19 06:18:00,23.4,17.9,29.73,West,275,13.0,22.0,79,0.00,,---,0.00,VWS V14.00,2013-03-19 10:18:00,
2013-03-19 06:21:00,23.4,17.9,29.72,WNW,296,10.0,22.0,79,0.00,,---,0.00,VWS V14.00,2013-03-19 10:21:00,
2013-03-19 06:22:00,23.4,17.9,29.72,WSW,258,3.0,22.0,79,0.00,,---,0.00,VWS V14.00,2013-03-19 10:22:00,
2013-03-19 06:23:00,23.4,17.9,29.73,WNW,294,9.0,22.0,79,0.00,,---,0.00,VWS V14.00,2013-03-19 10:23:00,
2013-03-19 06:24:00,23.4,17.9,29.73,NW,315,11.0,22.0,79,0.00,,---,0.00,VWS V14.00,2013-03-19 10:24:00,
2013-03-19 06:29:00,23.4,17.9,29.73,WNW,290,13.0,14.0,79,0.00,,---,0.00,VWS V14.00,2013-03-19 10:29:00,
2013-03-19 06:30:00,23.4,17.9,29.73,WNW,288,11.0,14.0,79,0.00,,---,0.00,VWS V14.00,2013-03-19 10:30:00,
2013-03-19 06:31:00,23.4,17.9,29.73,West,272,4.0,15.0,79,0.00,,---,0.00,VWS V14.00,2013-03-19 10:31:00,
2013-03-19 06:34:00,23.3,17.8,29.73,West,271,16.0,23.0,79,0.00,,---,0.00,VWS V14.00,2013-03-19 10:34:00,
2013-03-19 06:35:00,23.3,17.8,29.73,West,273,4.0,23.0,79,0.00,,---,0.00,VWS V14.00,2013-03-19 10:35:00,
2013-03-19 06:38:00,23.2,17.7,29.73,West,269,19.0,23.0,79,0.00,,---,0.00,VWS V14.00,2013-03-19 10:38:00,
2013-03-19 06:41:00,23.1,17.9,29.73,West,259,16.0,23.0,80,0.00,,---,0.00,VWS V14.00,2013-03-19 10:41:00,
2013-03-19 06:42:00,23.1,17.9,29.74,West,275,13.0,23.0,80,0.00,,---,0.00,VWS V14.00,2013-03-19 10:42:00,
2013-03-19 06:44:00,23.1,17.9,29.73,West,271,20.0,28.0,80,0.00,,---,0.00,VWS V14.00,2013-03-19 10:44:00,
2013-03-19 06:46:00,23.1,17.6,29.73,West,263,13.0,28.0,79,0.00,,---,0.00,VWS V14.00,2013-03-19 10:46:00,
2013-03-19 06:47:00,23.1,17.6,29.73,West,272,17.0,28.0,79,0.00,,---,0.00,VWS V14.00,2013-03-19 10:47:00,
2013-03-19 06:49:00,23.1,17.6,29.74,NW,319,17.0,28.0,79,0.00,,---,0.00,VWS V14.00,2013-03-19 10:49:00,
2013-03-19 06:50:00,23.1,17.6,29.74,West,263,6.0,28.0,79,0.00,,---,0.00,VWS V14.00,2013-03-19 10:50:00,
2013-03-19 06:53:00,23.2,17.7,29.74,WNW,292,9.0,28.0,79,0.00,,---,0.00,VWS V14.00,2013-03-19 10:53:00,
2013-03-19 06:54:00,23.2,17.7,29.74,West,271,21.0,28.0,79,0.00,,---,0.00,VWS V14.00,2013-03-19 10:54:00,
2013-03-19 06:55:00,23.2,17.7,29.74,WNW,290,7.0,28.0,79,0.00,,---,0.00,VWS V14.00,2013-03-19 10:55:00,
2013-03-19 06:58:00,23.1,17.3,29.74,West,273,14.0,28.0,78,0.00,,---,0.00,VWS V14.00,2013-03-19 10:58:00,
2013-03-19 07:00:00,23.1,17.3,29.74,West,275,18.0,21.0,78,0.00,,---,0.00,VWS V14.00,2013-03-19 11:00:00,
2013-03-19 07:03:00,23.0,17.2,29.74,West,268,13.0,21.0,78,0.00,,---,0.00,VWS V14.00,2013-03-19 11:03:00,
2013-03-19 07:04:00,23.0,17.2,29.74,WNW,290,23.0,25.0,78,0.00,,---,0.00,VWS V14.00,2013-03-19 11:04:00,
2013-03-19 07:05:00,23.0,17.5,29.74,WSW,257,16.0,25.0,79,0.00,,---,0.00,VWS V14.00,2013-03-19 11:05:00,
2013-03-19 07:08:00,23.0,17.2,29.74,WNW,286,11.0,25.0,78,0.00,,---,0.00,VWS V14.00,2013-03-19 11:08:00,
2013-03-19 07:09:00,23.0,17.2,29.74,WNW,296,11.0,25.0,78,0.00,,---,0.00,VWS V14.00,2013-03-19 11:09:00,
2013-03-19 07:11:00,23.0,17.2,29.74,West,275,19.0,25.0,78,0.00,,---,0.00,VWS V14.00,2013-03-19 11:11:00,
2013-03-19 07:13:00,23.0,17.2,29.74,West,269,2.0,25.0,78,0.00,,---,0.00,VWS V14.00,2013-03-19 11:13:00,
2013-03-19 07:15:00,23.0,17.5,29.74,West,275,14.0,25.0,79,0.00,,---,0.00,VWS V14.00,2013-03-19 11:15:00,
2013-03-19 07:17:00,23.0,17.5,29.75,West,265,10.0,25.0,79,0.00,,---,0.00,VWS V14.00,2013-03-19 11:17:00,
2013-03-19 07:18:00,23.0,17.5,29.75,West,277,4.0,25.0,79,0.00,,---,0.00,VWS V14.00,2013-03-19 11:18:00,
2013-03-19 07:20:00,23.0,17.5,29.75,West,267,9.0,25.0,79,0.00,,---,0.00,VWS V14.00,2013-03-19 11:20:00,
2013-03-19 07:22:00,22.9,17.4,29.74,West,268,7.0,25.0,79,0.00,,---,0.00,VWS V14.00,2013-03-19 11:22:00,
2013-03-19 07:23:00,23.0,17.5,29.74,WSW,256,1.0,25.0,79,0.00,,---,0.00,VWS V14.00,2013-03-19 11:23:00,
2013-03-19 07:25:00,23.0,17.5,29.74,WNW,286,16.0,25.0,79,0.00,,---,0.00,VWS V14.00,2013-03-19 11:25:00,
2013-03-19 07:28:00,22.8,17.6,29.74,West,279,12.0,25.0,80,0.00,,---,0.00,VWS V14.00,2013-03-19 11:28:00,
2013-03-19 07:30:00,22.7,17.8,29.74,West,281,15.0,21.0,81,0.00,,---,0.00,VWS V14.00,2013-03-19 11:30:00,
2013-03-19 07:31:00,22.6,17.7,29.74,West,264,3.0,23.0,81,0.00,,---,0.00,VWS V14.00,2013-03-19 11:31:00,
2013-03-19 07:32:00,22.6,17.7,29.74,WNW,284,10.0,23.0,81,0.00,,---,0.00,VWS V14.00,2013-03-19 11:32:00,
2013-03-19 07:35:00,22.5,17.6,29.74,WNW,292,5.0,23.0,81,0.00,,---,0.00,VWS V14.00,2013-03-19 11:35:00,
2013-03-19 07:36:00,22.5,17.6,29.74,West,267,6.0,23.0,81,0.00,,---,0.00,VWS V14.00,2013-03-19 11:36:00,
2013-03-19 07:37:00,22.5,17.9,29.75,West,264,11.0,23.0,82,0.00,,---,0.00,VWS V14.00,2013-03-19 11:37:00,
2013-03-19 07:39:00,22.5,17.9,29.74,West,263,7.0,23.0,82,0.00,,---,0.00,VWS V14.00,2013-03-19 11:39:00,
2013-03-19 07:40:00,22.5,17.6,29.74,West,269,13.0,23.0,81,0.00,,---,0.00,VWS V14.00,2013-03-19 11:40:00,
2013-03-19 07:42:00,22.5,17.6,29.74,West,263,13.0,23.0,81,0.00,,---,0.00,VWS V14.00,2013-03-19 11:42:00,
2013-03-19 07:43:00,22.5,17.6,29.74,West,273,2.0,23.0,81,0.00,,---,0.00,VWS V14.00,2013-03-19 11:43:00,
2013-03-19 07:44:00,22.5,17.6,29.74,West,260,4.0,23.0,81,0.00,,---,0.00,VWS V14.00,2013-03-19 11:44:00,
2013-03-19 07:46:00,22.5,17.6,29.74,West,277,15.0,23.0,81,0.00,,---,0.00,VWS V14.00,2013-03-19 11:46:00,
2013-03-19 07:48:00,22.5,17.6,29.74,West,268,12.0,23.0,81,0.00,,---,0.00,VWS V14.00,2013-03-19 11:48:00,
2013-03-19 07:49:00,22.5,17.6,29.75,West,280,26.0,26.0,81,0.00,,---,0.00,VWS V14.00,2013-03-19 11:49:00,
2013-03-19 07:53:00,22.2,17.5,29.75,West,276,12.0,26.0,82,0.00,,---,0.00,VWS V14.00,2013-03-19 11:53:00,
2013-03-19 07:54:00,22.2,17.5,29.75,West,271,7.0,26.0,82,0.00,,---,0.00,VWS V14.00,2013-03-19 11:54:00,
2013-03-19 07:56:00,22.2,17.5,29.75,WNW,286,14.0,26.0,82,0.00,,---,0.00,VWS V14.00,2013-03-19 11:56:00,
2013-03-19 07:58:00,22.0,17.6,29.74,WNW,295,11.0,14.0,83,0.00,,---,0.00,VWS V14.00,2013-03-19 11:58:00,
2013-03-19 08:00:00,22.0,17.6,29.74,WNW,284,5.0,18.0,83,0.00,,---,0.00,VWS V14.00,2013-03-19 12:00:00,
2013-03-19 08:01:00,21.9,17.8,29.74,West,273,14.0,18.0,84,0.00,,---,0.00,VWS V14.00,2013-03-19 12:01:00,
2013-03-19 08:04:00,21.8,17.7,29.74,WNW,291,12.0,18.0,84,0.00,,---,0.00,VWS V14.00,2013-03-19 12:04:00,
2013-03-19 08:05:00,21.8,17.7,29.74,West,267,6.0,18.0,84,0.00,,---,0.00,VWS V14.00,2013-03-19 12:05:00,
2013-03-19 08:06:00,21.8,17.7,29.75,WNW,282,19.0,19.0,84,0.00,,---,0.00,VWS V14.00,2013-03-19 12:06:00,
2013-03-19 08:07:00,21.8,17.7,29.75,West,272,11.0,21.0,84,0.00,,---,0.00,VWS V14.00,2013-03-19 12:07:00,
2013-03-19 08:09:00,21.8,18.0,29.75,West,269,15.0,21.0,85,0.00,,---,0.00,VWS V14.00,2013-03-19 12:09:00,
2013-03-19 08:11:00,21.8,18.0,29.75,WNW,286,4.0,21.0,85,0.00,,---,0.00,VWS V14.00,2013-03-19 12:11:00,
2013-03-19 08:13:00,21.8,18.0,29.75,West,275,9.0,21.0,85,0.00,,---,0.00,VWS V14.00,2013-03-19 12:13:00,
2013-03-19 08:17:00,21.7,17.9,29.75,SW,236,18.0,25.0,85,0.00,,---,0.00,VWS V14.00,2013-03-19 12:17:00,
2013-03-19 08:18:00,21.7,17.9,29.75,West,273,16.0,25.0,85,0.00,,---,0.00,VWS V14.00,2013-03-19 12:18:00,
2013-03-19 08:19:00,21.7,17.9,29.75,West,272,4.0,25.0,85,0.00,,---,0.00,VWS V14.00,2013-03-19 12:19:00,
2013-03-19 08:21:00,21.6,17.8,29.75,West,265,11.0,25.0,85,0.00,,---,0.00,VWS V14.00,2013-03-19 12:21:00,
2013-03-19 08:23:00,21.6,18.1,29.75,WSW,254,3.0,25.0,86,0.00,,---,0.00,VWS V14.00,2013-03-19 12:23:00,
2013-03-19 08:24:00,21.6,18.1,29.75,West,271,5.0,25.0,86,0.00,,---,0.00,VWS V14.00,2013-03-19 12:24:00,
2013-03-19 08:25:00,21.6,18.1,29.75,West,268,13.0,25.0,86,0.00,,---,0.00,VWS V14.00,2013-03-19 12:25:00,
2013-03-19 08:27:00,21.6,17.8,29.75,West,281,4.0,25.0,85,0.00,,---,0.00,VWS V14.00,2013-03-19 12:27:00,
2013-03-19 08:29:00,21.6,18.1,29.75,West,273,10.0,16.0,86,0.00,,---,0.00,VWS V14.00,2013-03-19 12:29:00,
2013-03-19 08:30:00,21.6,18.1,29.75,WNW,286,7.0,16.0,86,0.00,,---,0.00,VWS V14.00,2013-03-19 12:30:00,
2013-03-19 08:32:00,21.6,18.1,29.74,West,268,3.0,16.0,86,0.00,,---,0.00,VWS V14.00,2013-03-19 12:32:00,
2013-03-19 08:33:00,21.6,18.1,29.74,West,278,1.0,16.0,86,0.00,,---,0.00,VWS V14.00,2013-03-19 12:33:00,
2013-03-19 08:35:00,21.6,18.1,29.75,West,277,11.0,16.0,86,0.00,,---,0.00,VWS V14.00,2013-03-19 12:35:00,
2013-03-19 08:37:00,21.6,18.1,29.75,West,273,4.0,18.0,86,0.00,,---,0.00,VWS V14.00,2013-03-19 12:37:00,
2013-03-19 08:38:00,21.6,18.1,29.75,West,274,14.0,18.0,86,0.00,,---,0.00,VWS V14.00,2013-03-19 12:38:00,
2013-03-19 08:40:00,21.6,18.1,29.75,West,276,9.0,18.0,86,0.00,,---,0.00,VWS V14.00,2013-03-19 12:40:00,
2013-03-19 08:44:00,21.6,18.1,29.75,West,260,19.0,22.0,86,0.00,,---,0.00,VWS V14.00,2013-03-19 12:44:00,
2013-03-19 08:46:00,21.6,18.1,29.75,WNW,284,11.0,22.0,86,0.00,,---,0.00,VWS V14.00,2013-03-19 12:46:00,
2013-03-19 08:48:00,21.6,18.1,29.75,West,268,12.0,22.0,86,0.00,,---,0.00,VWS V14.00,2013-03-19 12:48:00,
2013-03-19 08:50:00,21.6,18.1,29.75,West,268,1.0,22.0,86,0.00,,---,0.00,VWS V14.00,2013-03-19 12:50:00,
2013-03-19 08:53:00,21.6,18.1,29.75,WNW,291,9.0,22.0,86,0.00,,---,0.00,VWS V14.00,2013-03-19 12:53:00,
2013-03-19 08:55:00,21.6,18.1,29.75,West,269,12.0,22.0,86,0.00,,---,0.00,VWS V14.00,2013-03-19 12:55:00,
2013-03-19 09:00:00,21.6,18.3,29.75,West,262,12.0,16.0,87,0.00,,---,0.00,VWS V14.00,2013-03-19 13:00:00,
2013-03-19 09:01:00,21.6,18.3,29.75,West,273,9.0,16.0,87,0.00,,---,0.00,VWS V14.00,2013-03-19 13:01:00,
2013-03-19 09:02:00,21.6,18.3,29.75,West,280,9.0,16.0,87,0.00,,---,0.00,VWS V14.00,2013-03-19 13:02:00,
2013-03-19 09:06:00,21.6,18.3,29.75,West,263,13.0,16.0,87,0.00,,---,0.00,VWS V14.00,2013-03-19 13:06:00,
2013-03-19 09:07:00,21.5,18.2,29.75,WNW,283,6.0,16.0,87,0.00,,---,0.00,VWS V14.00,2013-03-19 13:07:00,
2013-03-19 09:08:00,21.5,18.2,29.75,West,276,12.0,16.0,87,0.00,,---,0.00,VWS V14.00,2013-03-19 13:08:00,
2013-03-19 09:10:00,21.5,18.2,29.75,West,265,2.0,16.0,87,0.00,,---,0.00,VWS V14.00,2013-03-19 13:10:00,
2013-03-19 09:11:00,21.5,18.5,29.75,West,278,3.0,16.0,88,0.00,,---,0.00,VWS V14.00,2013-03-19 13:11:00,
2013-03-19 09:13:00,21.5,18.5,29.75,West,277,4.0,16.0,88,0.00,,---,0.00,VWS V14.00,2013-03-19 13:13:00,
2013-03-19 09:16:00,21.5,18.5,29.75,West,274,1.0,16.0,88,0.00,,---,0.00,VWS V14.00,2013-03-19 13:16:00,
2013-03-19 09:17:00,21.5,18.5,29.76,West,279,6.0,18.0,88,0.00,,---,0.00,VWS V14.00,2013-03-19 13:17:00,
2013-03-19 09:18:00,21.5,18.5,29.75,WNW,288,11.0,18.0,88,0.00,,---,0.00,VWS V14.00,2013-03-19 13:18:00,
2013-03-19 09:20:00,21.5,18.5,29.75,West,271,3.0,18.0,88,0.00,,---,0.00,VWS V14.00,2013-03-19 13:20:00,
2013-03-19 09:22:00,21.5,18.5,29.75,WNW,291,3.0,18.0,88,0.00,,---,0.00,VWS V14.00,2013-03-19 13:22:00,
2013-03-19 09:24:00,21.5,18.5,29.75,West,277,3.0,18.0,88,0.00,,---,0.00,VWS V14.00,2013-03-19 13:24:00,
2013-03-19 09:25:00,21.5,18.5,29.75,WSW,257,3.0,18.0,88,0.00,,---,0.00,VWS V14.00,2013-03-19 13:25:00,
2013-03-19 09:28:00,21.5,18.8,29.75,West,273,11.0,18.0,89,0.00,,---,0.00,VWS V14.00,2013-03-19 13:28:00,
2013-03-19 09:30:00,21.5,18.8,29.75,West,273,6.0,17.0,89,0.00,,---,0.00,VWS V14.00,2013-03-19 13:30:00,
2013-03-19 09:31:00,21.5,18.8,29.75,West,280,10.0,17.0,89,0.00,,---,0.00,VWS V14.00,2013-03-19 13:31:00,
2013-03-19 09:32:00,21.5,18.8,29.75,WNW,284,10.0,17.0,89,0.00,,---,0.00,VWS V14.00,2013-03-19 13:32:00,
2013-03-19 09:33:00,21.5,18.8,29.76,West,277,11.0,17.0,89,0.00,,---,0.00,VWS V14.00,2013-03-19 13:33:00,
2013-03-19 09:37:00,21.6,18.9,29.76,West,266,15.0,17.0,89,0.00,,---,0.00,VWS V14.00,2013-03-19 13:37:00,
2013-03-19 09:39:00,21.5,18.8,29.76,West,271,5.0,21.0,89,0.00,,---,0.00,VWS V14.00,2013-03-19 13:39:00,
2013-03-19 09:40:00,21.5,18.8,29.76,West,265,1.0,21.0,89,0.00,,---,0.00,VWS V14.00,2013-03-19 13:40:00,
2013-03-19 09:44:00,21.6,18.9,29.76,West,278,13.0,21.0,89,0.00,,---,0.00,VWS V14.00,2013-03-19 13:44:00,
2013-03-19 09:45:00,21.7,19.0,29.76,West,278,2.0,21.0,89,0.00,,---,0.00,VWS V14.00,2013-03-19 13:45:00,
2013-03-19 09:47:00,21.7,19.0,29.76,West,271,4.0,21.0,89,0.00,,---,0.00,VWS V14.00,2013-03-19 13:47:00,
2013-03-19 09:50:00,21.7,19.0,29.76,West,266,19.0,21.0,89,0.00,,---,0.00,VWS V14.00,2013-03-19 13:50:00,
2013-03-19 09:52:00,21.8,19.1,29.76,WNW,301,6.0,21.0,89,0.00,,---,0.00,VWS V14.00,2013-03-19 13:52:00,
2013-03-19 09:53:00,21.8,19.1,29.76,West,281,1.0,21.0,89,0.00,,---,0.00,VWS V14.00,2013-03-19 13:53:00,
2013-03-19 09:55:00,21.8,19.1,29.76,WNW,285,15.0,21.0,89,0.00,,---,0.00,VWS V14.00,2013-03-19 13:55:00,
2013-03-19 09:56:00,21.8,19.1,29.76,NW,317,22.0,26.0,89,0.00,,---,0.00,VWS V14.00,2013-03-19 13:56:00,
2013-03-19 09:57:00,21.7,18.7,29.76,WNW,294,10.0,26.0,88,0.00,,---,0.00,VWS V14.00,2013-03-19 13:57:00,
2013-03-19 09:58:00,21.7,18.7,29.76,WSW,254,12.0,26.0,88,0.00,,---,0.00,VWS V14.00,2013-03-19 13:58:00,
2013-03-19 10:02:00,21.6,18.9,29.76,West,277,15.0,20.0,89,0.00,,---,0.00,VWS V14.00,2013-03-19 14:02:00,
2013-03-19 10:03:00,21.6,18.9,29.76,West,273,14.0,20.0,89,0.00,,---,0.00,VWS V14.00,2013-03-19 14:03:00,
2013-03-19 10:08:00,21.7,18.7,29.77,WSW,256,2.0,20.0,88,0.00,,---,0.00,VWS V14.00,2013-03-19 14:08:00,
2013-03-19 10:10:00,21.7,18.7,29.77,WNW,300,11.0,20.0,88,0.00,,---,0.00,VWS V14.00,2013-03-19 14:10:00,
2013-03-19 10:13:00,21.8,19.1,29.77,West,281,3.0,20.0,89,0.00,,---,0.00,VWS V14.00,2013-03-19 14:13:00,
2013-03-19 10:15:00,21.8,19.1,29.77,West,281,12.0,20.0,89,0.00,,---,0.00,VWS V14.00,2013-03-19 14:15:00,
2013-03-19 10:16:00,21.8,19.1,29.77,WSW,246,3.0,20.0,89,0.00,,---,0.00,VWS V14.00,2013-03-19 14:16:00,
2013-03-19 10:19:00,21.7,19.0,29.77,West,274,12.0,20.0,89,0.00,,---,0.00,VWS V14.00,2013-03-19 14:19:00,
2013-03-19 10:20:00,21.7,19.0,29.77,West,279,3.0,20.0,89,0.00,,---,0.00,VWS V14.00,2013-03-19 14:20:00,
2013-03-19 10:22:00,21.7,19.0,29.77,NW,306,9.0,20.0,89,0.00,,---,0.00,VWS V14.00,2013-03-19 14:22:00,
2013-03-19 10:25:00,21.8,19.1,29.77,WNW,301,3.0,20.0,89,0.00,,---,0.00,VWS V14.00,2013-03-19 14:25:00,
2013-03-19 10:26:00,21.9,19.2,29.77,WNW,298,5.0,20.0,89,0.00,,---,0.00,VWS V14.00,2013-03-19 14:26:00,
2013-03-19 10:27:00,21.9,19.2,29.77,West,269,11.0,20.0,89,0.00,,---,0.00,VWS V14.00,2013-03-19 14:27:00,
2013-03-19 10:28:00,21.9,19.2,29.77,WNW,295,19.0,20.0,89,0.00,,---,0.00,VWS V14.00,2013-03-19 14:28:00,
2013-03-19 10:31:00,22.0,19.3,29.77,West,281,11.0,17.0,89,0.00,,---,0.00,VWS V14.00,2013-03-19 14:31:00,
2013-03-19 10:32:00,22.0,19.3,29.77,WSW,258,9.0,17.0,89,0.00,,---,0.00,VWS V14.00,2013-03-19 14:32:00,
2013-03-19 10:33:00,22.0,19.3,29.77,WNW,287,15.0,18.0,89,0.00,,---,0.00,VWS V14.00,2013-03-19 14:33:00,
2013-03-19 10:35:00,22.0,19.3,29.77,WNW,284,5.0,18.0,89,0.00,,---,0.00,VWS V14.00,2013-03-19 14:35:00,
2013-03-19 10:36:00,22.0,19.3,29.77,WNW,294,4.0,18.0,89,0.00,,---,0.00,VWS V14.00,2013-03-19 14:36:00,
2013-03-19 10:37:00,22.1,19.4,29.77,WNW,284,3.0,18.0,89,0.00,,---,0.00,VWS V14.00,2013-03-19 14:37:00,
2013-03-19 10:39:00,22.1,19.4,29.77,West,273,7.0,18.0,89,0.00,,---,0.00,VWS V14.00,2013-03-19 14:39:00,
2013-03-19 10:43:00,22.2,19.5,29.77,WNW,286,15.0,18.0,89,0.00,,---,0.00,VWS V14.00,2013-03-19 14:43:00,
2013-03-19 10:44:00,22.2,19.5,29.77,West,269,14.0,18.0,89,0.00,,---,0.00,VWS V14.00,2013-03-19 14:44:00,
2013-03-19 10:45:00,22.1,19.4,29.77,West,268,6.0,18.0,89,0.00,,---,0.00,VWS V14.00,2013-03-19 14:45:00,
2013-03-19 10:48:00,22.0,19.3,29.78,West,278,10.0,20.0,89,0.00,,---,0.00,VWS V14.00,2013-03-19 14:48:00,
2013-03-19 10:49:00,22.0,19.3,29.78,West,263,11.0,20.0,89,0.00,,---,0.00,VWS V14.00,2013-03-19 14:49:00,
2013-03-19 10:50:00,22.0,19.3,29.78,West,263,3.0,23.0,89,0.00,,---,0.00,VWS V14.00,2013-03-19 14:50:00,
2013-03-19 10:55:00,22.0,19.3,29.78,WNW,303,14.0,23.0,89,0.00,,---,0.00,VWS V14.00,2013-03-19 14:55:00,
2013-03-19 10:56:00,22.1,19.4,29.78,NW,310,13.0,23.0,89,0.00,,---,0.00,VWS V14.00,2013-03-19 14:56:00,
2013-03-19 10:57:00,22.1,19.6,29.78,West,275,9.0,23.0,90,0.00,,---,0.00,VWS V14.00,2013-03-19 14:57:00,
2013-03-19 11:00:00,22.1,19.6,29.78,West,267,4.0,17.0,90,0.00,,---,0.00,VWS V14.00,2013-03-19 15:00:00,
2013-03-19 11:02:00,22.2,19.7,29.78,WSW,252,9.0,17.0,90,0.00,,---,0.00,VWS V14.00,2013-03-19 15:02:00,
2013-03-19 11:04:00,22.2,19.7,29.78,WSW,248,2.0,17.0,90,0.00,,---,0.00,VWS V14.00,2013-03-19 15:04:00,
2013-03-19 11:05:00,22.2,19.7,29.79,West,269,5.0,17.0,90,0.00,,---,0.00,VWS V14.00,2013-03-19 15:05:00,
2013-03-19 11:10:00,22.2,19.7,29.79,WNW,285,11.0,20.0,90,0.00,,---,0.00,VWS V14.00,2013-03-19 15:10:00,
2013-03-19 11:11:00,22.2,19.7,29.79,West,278,10.0,20.0,90,0.00,,---,0.00,VWS V14.00,2013-03-19 15:11:00,
2013-03-19 11:15:00,22.0,19.3,29.79,WNW,286,13.0,20.0,89,0.00,,---,0.00,VWS V14.00,2013-03-19 15:15:00,
2013-03-19 11:16:00,22.0,19.3,29.79,WNW,284,1.0,20.0,89,0.00,,---,0.00,VWS V14.00,2013-03-19 15:16:00,
2013-03-19 11:18:00,22.0,19.3,29.79,WNW,282,10.0,20.0,89,0.00,,---,0.00,VWS V14.00,2013-03-19 15:18:00,
2013-03-19 11:21:00,22.0,19.3,29.79,WNW,296,10.0,20.0,89,0.00,,---,0.00,VWS V14.00,2013-03-19 15:21:00,
2013-03-19 11:22:00,22.0,19.3,29.79,WNW,298,13.0,20.0,89,0.00,,---,0.00,VWS V14.00,2013-03-19 15:22:00,
2013-03-19 11:24:00,22.1,19.4,29.79,West,273,1.0,20.0,89,0.00,,---,0.00,VWS V14.00,2013-03-19 15:24:00,
2013-03-19 11:27:00,22.2,19.7,29.80,West,280,2.0,20.0,90,0.00,,---,0.00,VWS V14.00,2013-03-19 15:27:00,
2013-03-19 11:28:00,22.2,19.7,29.80,West,273,12.0,20.0,90,0.00,,---,0.00,VWS V14.00,2013-03-19 15:28:00,
2013-03-19 11:30:00,22.2,19.7,29.80,WNW,292,5.0,12.0,90,0.00,,---,0.00,VWS V14.00,2013-03-19 15:30:00,
2013-03-19 11:32:00,22.2,19.7,29.80,WSW,250,6.0,12.0,90,0.00,,---,0.00,VWS V14.00,2013-03-19 15:32:00,
2013-03-19 11:33:00,22.2,19.7,29.80,West,271,7.0,22.0,90,0.00,,---,0.00,VWS V14.00,2013-03-19 15:33:00,
2013-03-19 11:35:00,22.1,19.6,29.80,WNW,303,16.0,22.0,90,0.00,,---,0.00,VWS V14.00,2013-03-19 15:35:00,
2013-03-19 11:36:00,22.1,19.6,29.80,West,265,2.0,22.0,90,0.00,,---,0.00,VWS V14.00,2013-03-19 15:36:00,
2013-03-19 11:37:00,22.0,19.5,29.80,West,260,6.0,22.0,90,0.00,,---,0.00,VWS V14.00,2013-03-19 15:37:00,
2013-03-19 11:40:00,22.0,19.5,29.80,WNW,284,7.0,22.0,90,0.00,,---,0.00,VWS V14.00,2013-03-19 15:40:00,
2013-03-19 11:41:00,21.9,19.4,29.80,West,272,16.0,22.0,90,0.00,,---,0.00,VWS V14.00,2013-03-19 15:41:00,
2013-03-19 11:43:00,21.9,19.4,29.80,WNW,288,2.0,22.0,90,0.00,,---,0.00,VWS V14.00,2013-03-19 15:43:00,
2013-03-19 11:44:00,22.0,19.5,29.81,WNW,294,5.0,22.0,90,0.00,,---,0.00,VWS V14.00,2013-03-19 15:44:00,
2013-03-19 11:45:00,22.0,19.5,29.81,West,259,3.0,22.0,90,0.00,,---,0.00,VWS V14.00,2013-03-19 15:45:00,
2013-03-19 11:50:00,22.0,19.5,29.81,West,267,4.0,22.0,90,0.00,,---,0.00,VWS V14.00,2013-03-19 15:50:00,
2013-03-19 11:51:00,22.0,19.5,29.81,West,269,1.0,22.0,90,0.00,,---,0.00,VWS V14.00,2013-03-19 15:51:00,
2013-03-19 11:55:00,22.0,19.5,29.81,West,269,11.0,22.0,90,0.00,,---,0.00,VWS V14.00,2013-03-19 15:55:00,
2013-03-19 11:57:00,22.0,19.5,29.81,West,265,7.0,22.0,90,0.00,,---,0.00,VWS V14.00,2013-03-19 15:57:00,
2013-03-19 12:00:00,22.0,19.5,29.81,West,265,7.0,15.0,90,0.00,,---,0.00,VWS V14.00,2013-03-19 16:00:00,
2013-03-19 12:01:00,22.0,19.5,29.81,NW,310,10.0,16.0,90,0.00,,---,0.00,VWS V14.00,2013-03-19 16:01:00,
2013-03-19 12:02:00,22.0,19.5,29.81,WNW,297,4.0,16.0,90,0.00,,---,0.00,VWS V14.00,2013-03-19 16:02:00,
2013-03-19 12:04:00,22.1,19.6,29.81,WNW,287,15.0,19.0,90,0.00,,---,0.00,VWS V14.00,2013-03-19 16:04:00,
2013-03-19 12:05:00,22.1,19.6,29.81,WNW,283,20.0,23.0,90,0.00,,---,0.00,VWS V14.00,2013-03-19 16:05:00,
2013-03-19 12:07:00,22.0,19.5,29.81,WNW,288,9.0,23.0,90,0.00,,---,0.00,VWS V14.00,2013-03-19 16:07:00,
2013-03-19 12:09:00,22.1,19.6,29.81,NW,308,13.0,23.0,90,0.00,,---,0.00,VWS V14.00,2013-03-19 16:09:00,
2013-03-19 12:13:00,22.2,19.7,29.81,WNW,294,2.0,23.0,90,0.00,,---,0.00,VWS V14.00,2013-03-19 16:13:00,
2013-03-19 12:14:00,22.3,20.1,29.81,West,270,10.0,23.0,91,0.00,,---,0.00,VWS V14.00,2013-03-19 16:14:00,
2013-03-19 12:15:00,22.3,20.1,29.81,West,270,2.0,23.0,91,0.00,,---,0.00,VWS V14.00,2013-03-19 16:15:00,
2013-03-19 12:19:00,22.4,20.2,29.82,NW,311,5.0,23.0,91,0.00,,---,0.00,VWS V14.00,2013-03-19 16:19:00,
2013-03-19 12:20:00,22.4,20.2,29.82,WNW,287,15.0,23.0,91,0.00,,---,0.00,VWS V14.00,2013-03-19 16:20:00,
2013-03-19 12:23:00,22.3,20.1,29.82,West,278,9.0,23.0,91,0.00,,---,0.00,VWS V14.00,2013-03-19 16:23:00,
2013-03-19 12:25:00,22.4,20.2,29.82,West,278,6.0,23.0,91,0.00,,---,0.00,VWS V14.00,2013-03-19 16:25:00,
2013-03-19 12:28:00,22.4,20.2,29.82,West,268,1.0,23.0,91,0.00,,---,0.00,VWS V14.00,2013-03-19 16:28:00,
2013-03-19 12:31:00,22.5,20.3,29.82,WNW,290,5.0,15.0,91,0.00,,---,0.00,VWS V14.00,2013-03-19 16:31:00,
2013-03-19 12:34:00,22.6,20.4,29.83,West,275,10.0,15.0,91,0.00,,---,0.00,VWS V14.00,2013-03-19 16:34:00,
2013-03-19 12:35:00,22.6,20.4,29.83,West,272,5.0,15.0,91,0.00,,---,0.00,VWS V14.00,2013-03-19 16:35:00,
2013-03-19 12:36:00,22.6,20.4,29.83,West,269,5.0,15.0,91,0.00,,---,0.00,VWS V14.00,2013-03-19 16:36:00,
2013-03-19 12:40:00,22.7,20.5,29.82,WNW,282,4.0,15.0,91,0.00,,---,0.00,VWS V14.00,2013-03-19 16:40:00,
2013-03-19 12:42:00,22.6,20.4,29.83,West,279,6.0,21.0,91,0.00,,---,0.00,VWS V14.00,2013-03-19 16:42:00,
2013-03-19 12:45:00,22.6,20.4,29.82,West,261,1.0,21.0,91,0.00,,---,0.00,VWS V14.00,2013-03-19 16:45:00,
2013-03-19 12:47:00,22.6,20.4,29.83,West,280,5.0,21.0,91,0.00,,---,0.00,VWS V14.00,2013-03-19 16:47:00,
2013-03-19 12:48:00,22.7,20.5,29.83,WNW,294,4.0,21.0,91,0.00,,---,0.00,VWS V14.00,2013-03-19 16:48:00,
2013-03-19 12:50:00,22.7,20.5,29.83,WNW,286,17.0,21.0,91,0.00,,---,0.00,VWS V14.00,2013-03-19 16:50:00,
2013-03-19 12:53:00,22.7,20.5,29.83,West,276,2.0,21.0,91,0.00,,---,0.00,VWS V14.00,2013-03-19 16:53:00,
2013-03-19 12:54:00,22.7,20.5,29.83,West,268,4.0,21.0,91,0.00,,---,0.00,VWS V14.00,2013-03-19 16:54:00,
2013-03-19 12:56:00,22.7,20.5,29.83,West,272,4.0,21.0,91,0.00,,---,0.00,VWS V14.00,2013-03-19 16:56:00,
2013-03-19 12:58:00,22.7,20.5,29.83,NW,323,10.0,21.0,91,0.00,,---,0.00,VWS V14.00,2013-03-19 16:58:00,
2013-03-19 12:59:00,22.7,20.5,29.83,NW,310,10.0,17.0,91,0.00,,---,0.00,VWS V14.00,2013-03-19 16:59:00,
2013-03-19 13:01:00,22.7,20.5,29.83,WNW,301,5.0,17.0,91,0.00,,---,0.00,VWS V14.00,2013-03-19 17:01:00,
2013-03-19 13:03:00,22.7,20.5,29.83,West,263,5.0,17.0,91,0.00,,---,0.00,VWS V14.00,2013-03-19 17:03:00,
2013-03-19 13:05:00,22.8,20.6,29.83,WNW,303,10.0,17.0,91,0.00,,---,0.00,VWS V14.00,2013-03-19 17:05:00,
2013-03-19 13:06:00,22.8,20.6,29.83,West,276,9.0,17.0,91,0.00,,---,0.00,VWS V14.00,2013-03-19 17:06:00,
2013-03-19 13:07:00,22.8,20.6,29.84,WNW,298,7.0,17.0,91,0.00,,---,0.00,VWS V14.00,2013-03-19 17:07:00,
2013-03-19 13:08:00,22.8,20.6,29.83,WNW,290,14.0,17.0,91,0.00,,---,0.00,VWS V14.00,2013-03-19 17:08:00,
2013-03-19 13:10:00,22.9,20.7,29.83,West,271,5.0,17.0,91,0.00,,---,0.00,VWS V14.00,2013-03-19 17:10:00,
2013-03-19 13:12:00,22.9,20.7,29.83,West,277,5.0,17.0,91,0.00,,---,0.00,VWS V14.00,2013-03-19 17:12:00,
2013-03-19 13:14:00,23.1,21.1,29.84,West,277,5.0,17.0,92,0.00,,---,0.00,VWS V14.00,2013-03-19 17:14:00,
2013-03-19 13:17:00,23.2,21.2,29.84,West,271,5.0,17.0,92,0.00,,---,0.00,VWS V14.00,2013-03-19 17:17:00,
2013-03-19 13:21:00,23.4,21.4,29.84,WNW,291,8.0,20.0,92,0.00,,---,0.00,VWS V14.00,2013-03-19 17:21:00,
2013-03-19 13:22:00,23.4,21.2,29.84,NW,309,14.0,20.0,91,0.00,,---,0.00,VWS V14.00,2013-03-19 17:22:00,
2013-03-19 13:26:00,23.4,21.2,29.84,WNW,290,2.0,20.0,91,0.00,,---,0.00,VWS V14.00,2013-03-19 17:26:00,
2013-03-19 13:27:00,23.5,21.5,29.84,West,265,17.0,20.0,92,0.00,,---,0.00,VWS V14.00,2013-03-19 17:27:00,
2013-03-19 13:29:00,23.4,21.2,29.84,WNW,297,14.0,14.0,91,0.00,,---,0.00,VWS V14.00,2013-03-19 17:29:00,
2013-03-19 13:30:00,23.4,21.2,29.84,West,273,15.0,15.0,91,0.00,,---,0.00,VWS V14.00,2013-03-19 17:30:00,
2013-03-19 13:33:00,23.3,21.1,29.84,WNW,297,3.0,21.0,91,0.00,,---,0.00,VWS V14.00,2013-03-19 17:33:00,
2013-03-19 13:34:00,23.3,21.1,29.84,WNW,288,15.0,21.0,91,0.00,,---,0.00,VWS V14.00,2013-03-19 17:34:00,
2013-03-19 13:35:00,23.3,21.1,29.84,WNW,286,2.0,21.0,91,0.00,,---,0.00,VWS V14.00,2013-03-19 17:35:00,
2013-03-19 13:40:00,23.2,21.2,29.84,West,272,3.0,21.0,92,0.00,,---,0.00,VWS V14.00,2013-03-19 17:40:00,
2013-03-19 13:42:00,23.3,21.3,29.85,WNW,285,13.0,21.0,92,0.00,,---,0.00,VWS V14.00,2013-03-19 17:42:00,
2013-03-19 13:44:00,23.2,21.2,29.84,West,270,5.0,21.0,92,0.00,,---,0.00,VWS V14.00,2013-03-19 17:44:00,
2013-03-19 13:45:00,23.2,21.2,29.85,West,272,3.0,21.0,92,0.00,,---,0.00,VWS V14.00,2013-03-19 17:45:00,
2013-03-19 13:48:00,23.1,21.1,29.85,West,268,4.0,21.0,92,0.00,,---,0.00,VWS V14.00,2013-03-19 17:48:00,
2013-03-19 13:49:00,23.1,21.1,29.85,NW,314,18.0,21.0,92,0.00,,---,0.00,VWS V14.00,2013-03-19 17:49:00,
2013-03-19 13:50:00,23.1,21.1,29.85,NW,319,5.0,21.0,92,0.00,,---,0.00,VWS V14.00,2013-03-19 17:50:00,
2013-03-19 13:53:00,23.1,21.1,29.85,West,268,16.0,21.0,92,0.00,,---,0.00,VWS V14.00,2013-03-19 17:53:00,
2013-03-19 13:55:00,23.1,21.1,29.85,WNW,286,6.0,21.0,92,0.00,,---,0.00,VWS V14.00,2013-03-19 17:55:00,
2013-03-19 13:59:00,23.2,21.2,29.85,WNW,285,11.0,18.0,92,0.00,,---,0.00,VWS V14.00,2013-03-19 17:59:00,
2013-03-19 14:04:00,23.3,21.1,29.85,NW,306,10.0,23.0,91,0.00,,---,0.00,VWS V14.00,2013-03-19 18:04:00,
2013-03-19 14:05:00,23.3,21.1,29.85,West,263,5.0,23.0,91,0.00,,---,0.00,VWS V14.00,2013-03-19 18:05:00,
2013-03-19 14:06:00,23.3,21.1,29.85,West,273,16.0,23.0,91,0.00,,---,0.00,VWS V14.00,2013-03-19 18:06:00,
2013-03-19 14:08:00,23.3,21.1,29.86,WNW,283,3.0,23.0,91,0.00,,---,0.00,VWS V14.00,2013-03-19 18:08:00,
2013-03-19 14:10:00,23.4,21.2,29.86,WNW,288,7.0,23.0,91,0.00,,---,0.00,VWS V14.00,2013-03-19 18:10:00,
2013-03-19 14:13:00,23.5,21.3,29.85,WNW,288,13.0,23.0,91,0.00,,---,0.00,VWS V14.00,2013-03-19 18:13:00,
2013-03-19 14:14:00,23.5,21.3,29.85,WNW,283,3.0,23.0,91,0.00,,---,0.00,VWS V14.00,2013-03-19 18:14:00,
2013-03-19 14:16:00,23.5,21.3,29.85,NW,310,2.0,23.0,91,0.00,,---,0.00,VWS V14.00,2013-03-19 18:16:00,
2013-03-19 14:18:00,23.6,21.4,29.85,West,269,4.0,23.0,91,0.00,,---,0.00,VWS V14.00,2013-03-19 18:18:00,
2013-03-19 14:20:00,23.6,21.6,29.85,NW,304,4.0,23.0,92,0.00,,---,0.00,VWS V14.00,2013-03-19 18:20:00,
2013-03-19 14:22:00,23.7,21.7,29.85,West,269,5.0,23.0,92,0.00,,---,0.00,VWS V14.00,2013-03-19 18:22:00,
2013-03-19 14:24:00,23.7,21.5,29.85,WNW,298,5.0,23.0,91,0.00,,---,0.00,VWS V14.00,2013-03-19 18:24:00,
2013-03-19 14:25:00,23.7,21.5,29.86,WNW,300,19.0,23.0,91,0.00,,---,0.00,VWS V14.00,2013-03-19 18:25:00,
2013-03-19 14:28:00,23.8,21.6,29.86,NW,308,12.0,12.0,91,0.00,,---,0.00,VWS V14.00,2013-03-19 18:28:00,
2013-03-19 14:29:00,23.8,21.6,29.86,West,259,6.0,14.0,91,0.00,,---,0.00,VWS V14.00,2013-03-19 18:29:00,
2013-03-19 14:30:00,23.9,21.7,29.86,WNW,303,4.0,14.0,91,0.00,,---,0.00,VWS V14.00,2013-03-19 18:30:00,
2013-03-19 14:31:00,23.9,21.7,29.86,West,281,7.0,15.0,91,0.00,,---,0.00,VWS V14.00,2013-03-19 18:31:00,
2013-03-19 14:36:00,24.0,21.8,29.86,NW,319,15.0,20.0,91,0.00,,---,0.00,VWS V14.00,2013-03-19 18:36:00,
2013-03-19 14:37:00,24.0,21.8,29.86,WSW,244,3.0,20.0,91,0.00,,---,0.00,VWS V14.00,2013-03-19 18:37:00,
2013-03-19 14:39:00,24.1,21.9,29.86,WNW,300,14.0,20.0,91,0.00,,---,0.00,VWS V14.00,2013-03-19 18:39:00,
2013-03-19 14:41:00,24.2,22.0,29.86,West,271,7.0,20.0,91,0.00,,---,0.00,VWS V14.00,2013-03-19 18:41:00,
2013-03-19 14:42:00,24.2,22.0,29.86,WNW,290,7.0,20.0,91,0.00,,---,0.00,VWS V14.00,2013-03-19 18:42:00,
2013-03-19 14:44:00,24.3,22.1,29.86,WNW,287,15.0,23.0,91,0.00,,---,0.00,VWS V14.00,2013-03-19 18:44:00,
2013-03-19 14:45:00,24.3,22.1,29.86,WNW,299,6.0,23.0,91,0.00,,---,0.00,VWS V14.00,2013-03-19 18:45:00,
2013-03-19 14:46:00,24.3,22.1,29.86,WNW,294,5.0,23.0,91,0.00,,---,0.00,VWS V14.00,2013-03-19 18:46:00,
2013-03-19 14:50:00,24.4,21.9,29.86,NW,318,6.0,23.0,90,0.00,,---,0.00,VWS V14.00,2013-03-19 18:50:00,
2013-03-19 14:51:00,24.4,21.9,29.87,West,280,6.0,23.0,90,0.00,,---,0.00,VWS V14.00,2013-03-19 18:51:00,
2013-03-19 14:52:00,24.4,21.9,29.87,West,276,11.0,23.0,90,0.00,,---,0.00,VWS V14.00,2013-03-19 18:52:00,
2013-03-19 14:56:00,24.4,21.9,29.86,NW,313,16.0,24.0,90,0.00,,---,0.00,VWS V14.00,2013-03-19 18:56:00,
2013-03-19 14:57:00,24.4,21.9,29.87,NW,304,7.0,24.0,90,0.00,,---,0.00,VWS V14.00,2013-03-19 18:57:00,
2013-03-19 14:58:00,24.4,21.9,29.87,NW,324,14.0,24.0,90,0.00,,---,0.00,VWS V14.00,2013-03-19 18:58:00,
2013-03-19 14:59:00,24.4,21.9,29.87,WNW,286,15.0,22.0,90,0.00,,---,0.00,VWS V14.00,2013-03-19 18:59:00,
2013-03-19 15:02:00,24.5,22.0,29.86,West,280,14.0,22.0,90,0.00,,---,0.00,VWS V14.00,2013-03-19 19:02:00,
2013-03-19 15:04:00,24.6,22.1,29.87,NW,308,7.0,22.0,90,0.00,,---,0.00,VWS V14.00,2013-03-19 19:04:00,
2013-03-19 15:06:00,24.7,22.2,29.87,WNW,286,15.0,23.0,90,0.00,,---,0.00,VWS V14.00,2013-03-19 19:06:00,
2013-03-19 15:07:00,24.7,22.2,29.87,West,270,3.0,23.0,90,0.00,,---,0.00,VWS V14.00,2013-03-19 19:07:00,
2013-03-19 15:09:00,24.7,21.9,29.87,West,272,15.0,23.0,89,0.00,,---,0.00,VWS V14.00,2013-03-19 19:09:00,
2013-03-19 15:12:00,24.7,21.9,29.86,West,277,5.0,23.0,89,0.00,,---,0.00,VWS V14.00,2013-03-19 19:12:00,
2013-03-19 15:13:00,24.8,22.0,29.86,WNW,302,6.0,23.0,89,0.00,,---,0.00,VWS V14.00,2013-03-19 19:13:00,
2013-03-19 15:15:00,24.8,22.0,29.87,WNW,293,3.0,23.0,89,0.00,,---,0.00,VWS V14.00,2013-03-19 19:15:00,
2013-03-19 15:16:00,24.9,22.1,29.87,NW,314,14.0,23.0,89,0.00,,---,0.00,VWS V14.00,2013-03-19 19:16:00,
2013-03-19 15:18:00,24.9,22.1,29.87,West,281,15.0,23.0,89,0.00,,---,0.00,VWS V14.00,2013-03-19 19:18:00,
2013-03-19 15:20:00,24.9,22.1,29.87,NW,311,12.0,23.0,89,0.00,,---,0.00,VWS V14.00,2013-03-19 19:20:00,
2013-03-19 15:22:00,25.1,22.0,29.87,WNW,291,2.0,23.0,88,0.00,,---,0.00,VWS V14.00,2013-03-19 19:22:00,
2013-03-19 15:23:00,25.2,22.1,29.87,West,276,13.0,23.0,88,0.00,,---,0.00,VWS V14.00,2013-03-19 19:23:00,
2013-03-19 15:25:00,25.3,22.2,29.87,West,271,15.0,25.0,88,0.00,,---,0.00,VWS V14.00,2013-03-19 19:25:00,
2013-03-19 15:26:00,25.3,22.2,29.87,West,278,6.0,25.0,88,0.00,,---,0.00,VWS V14.00,2013-03-19 19:26:00,
2013-03-19 15:28:00,25.3,22.2,29.87,WNW,294,5.0,25.0,88,0.00,,---,0.00,VWS V14.00,2013-03-19 19:28:00,
2013-03-19 15:30:00,25.3,22.0,29.87,West,278,14.0,22.0,87,0.00,,---,0.00,VWS V14.00,2013-03-19 19:30:00,
2013-03-19 15:31:00,25.3,22.0,29.87,West,279,15.0,22.0,87,0.00,,---,0.00,VWS V14.00,2013-03-19 19:31:00,
2013-03-19 15:33:00,25.4,22.1,29.87,NW,313,4.0,22.0,87,0.00,,---,0.00,VWS V14.00,2013-03-19 19:33:00,
2013-03-19 15:35:00,25.4,22.1,29.87,West,281,10.0,22.0,87,0.00,,---,0.00,VWS V14.00,2013-03-19 19:35:00,
2013-03-19 15:37:00,25.5,22.2,29.87,NNW,331,10.0,22.0,87,0.00,,---,0.00,VWS V14.00,2013-03-19 19:37:00,
2013-03-19 15:38:00,25.5,22.2,29.88,NW,313,6.0,22.0,87,0.00,,---,0.00,VWS V14.00,2013-03-19 19:38:00,
2013-03-19 15:42:00,25.5,21.9,29.88,NNW,338,7.0,24.0,86,0.00,,---,0.00,VWS V14.00,2013-03-19 19:42:00,
2013-03-19 15:43:00,25.5,21.9,29.88,WNW,298,5.0,24.0,86,0.00,,---,0.00,VWS V14.00,2013-03-19 19:43:00,
2013-03-19 15:44:00,25.6,22.0,29.88,WNW,292,7.0,24.0,86,0.00,,---,0.00,VWS V14.00,2013-03-19 19:44:00,
2013-03-19 15:47:00,25.7,21.8,29.88,WNW,288,5.0,24.0,85,0.00,,---,0.00,VWS V14.00,2013-03-19 19:47:00,
2013-03-19 15:48:00,25.7,21.8,29.88,WNW,292,12.0,24.0,85,0.00,,---,0.00,VWS V14.00,2013-03-19 19:48:00,
2013-03-19 15:51:00,25.7,21.8,29.88,NW,326,9.0,27.0,85,0.00,,---,0.00,VWS V14.00,2013-03-19 19:51:00,
2013-03-19 15:52:00,25.7,21.5,29.88,West,267,2.0,27.0,84,0.00,,---,0.00,VWS V14.00,2013-03-19 19:52:00,
2013-03-19 15:53:00,25.7,21.5,29.88,WNW,287,3.0,27.0,84,0.00,,---,0.00,VWS V14.00,2013-03-19 19:53:00,
2013-03-19 15:56:00,25.8,21.6,29.88,WNW,288,3.0,27.0,84,0.00,,---,0.00,VWS V14.00,2013-03-19 19:56:00,
2013-03-19 15:58:00,25.8,21.6,29.88,NW,306,14.0,27.0,84,0.00,,---,0.00,VWS V14.00,2013-03-19 19:58:00,
2013-03-19 15:59:00,25.8,21.6,29.88,NW,306,5.0,15.0,84,0.00,,---,0.00,VWS V14.00,2013-03-19 19:59:00,
2013-03-19 16:01:00,25.9,21.7,29.88,NW,304,12.0,20.0,84,0.00,,---,0.00,VWS V14.00,2013-03-19 20:01:00,
2013-03-19 16:03:00,25.9,21.5,29.88,NW,313,6.0,21.0,83,0.00,,---,0.00,VWS V14.00,2013-03-19 20:03:00,
2013-03-19 16:04:00,25.9,21.5,29.88,West,272,9.0,21.0,83,0.00,,---,0.00,VWS V14.00,2013-03-19 20:04:00,
2013-03-19 16:05:00,25.9,21.5,29.88,WNW,288,5.0,21.0,83,0.00,,---,0.00,VWS V14.00,2013-03-19 20:05:00,
2013-03-19 16:08:00,26.0,21.6,29.89,NW,304,6.0,21.0,83,0.00,,---,0.00,VWS V14.00,2013-03-19 20:08:00,
2013-03-19 16:09:00,26.0,21.6,29.89,WNW,290,4.0,21.0,83,0.00,,---,0.00,VWS V14.00,2013-03-19 20:09:00,
2013-03-19 16:10:00,26.1,21.6,29.88,NNW,348,12.0,21.0,83,0.00,,---,0.00,VWS V14.00,2013-03-19 20:10:00,
2013-03-19 16:14:00,26.1,21.6,29.89,WNW,299,12.0,21.0,83,0.00,,---,0.00,VWS V14.00,2013-03-19 20:14:00,
2013-03-19 16:15:00,26.2,21.8,29.89,NW,309,16.0,21.0,83,0.00,,---,0.00,VWS V14.00,2013-03-19 20:15:00,
2013-03-19 16:16:00,26.2,21.8,29.89,NNW,333,11.0,21.0,83,0.00,,---,0.00,VWS V14.00,2013-03-19 20:16:00,
2013-03-19 16:17:00,26.1,21.4,29.89,NW,306,5.0,21.0,82,0.00,,---,0.00,VWS V14.00,2013-03-19 20:17:00,
2013-03-19 16:20:00,26.2,21.5,29.89,WNW,300,13.0,21.0,82,0.00,,---,0.00,VWS V14.00,2013-03-19 20:20:00,
2013-03-19 16:23:00,26.2,21.5,29.89,WNW,294,21.0,22.0,82,0.00,,---,0.00,VWS V14.00,2013-03-19 20:23:00,
2013-03-19 16:24:00,26.2,21.5,29.89,NNW,327,11.0,22.0,82,0.00,,---,0.00,VWS V14.00,2013-03-19 20:24:00,
2013-03-19 16:25:00,26.2,21.2,29.89,NW,304,19.0,23.0,81,0.00,,---,0.00,VWS V14.00,2013-03-19 20:25:00,
2013-03-19 16:28:00,26.2,21.2,29.89,NW,311,7.0,23.0,81,0.00,,---,0.00,VWS V14.00,2013-03-19 20:28:00,
2013-03-19 16:29:00,26.3,21.3,29.89,NNW,331,12.0,17.0,81,0.00,,---,0.00,VWS V14.00,2013-03-19 20:29:00,
2013-03-19 16:30:00,26.3,21.3,29.89,NW,321,15.0,21.0,81,0.00,,---,0.00,VWS V14.00,2013-03-19 20:30:00,
2013-03-19 16:32:00,26.5,21.5,29.89,WNW,297,10.0,22.0,81,0.00,,---,0.00,VWS V14.00,2013-03-19 20:32:00,
2013-03-19 16:34:00,26.6,21.3,29.89,NW,315,19.0,22.0,80,0.00,,---,0.00,VWS V14.00,2013-03-19 20:34:00,
2013-03-19 16:38:00,26.6,21.3,29.89,NNW,337,11.0,22.0,80,0.00,,---,0.00,VWS V14.00,2013-03-19 20:38:00,
2013-03-19 16:39:00,26.6,21.3,29.89,NW,318,5.0,22.0,80,0.00,,---,0.00,VWS V14.00,2013-03-19 20:39:00,
2013-03-19 16:41:00,26.8,21.5,29.89,WNW,300,3.0,22.0,80,0.00,,---,0.00,VWS V14.00,2013-03-19 20:41:00,
2013-03-19 16:45:00,26.9,21.3,29.89,WNW,294,8.0,22.0,79,0.00,,---,0.00,VWS V14.00,2013-03-19 20:45:00,
2013-03-19 16:46:00,27.0,21.4,29.89,WNW,288,6.0,22.0,79,0.00,,---,0.00,VWS V14.00,2013-03-19 20:46:00,
2013-03-19 16:47:00,27.0,21.4,29.89,WNW,303,6.0,22.0,79,0.00,,---,0.00,VWS V14.00,2013-03-19 20:47:00,
2013-03-19 16:50:00,27.2,21.6,29.90,NW,316,5.0,22.0,79,0.00,,---,0.00,VWS V14.00,2013-03-19 20:50:00,
2013-03-19 16:52:00,27.3,21.7,29.89,WNW,296,3.0,22.0,79,0.00,,---,0.00,VWS V14.00,2013-03-19 20:52:00,
2013-03-19 16:54:00,27.4,21.5,29.89,West,271,6.0,22.0,78,0.00,,---,0.00,VWS V14.00,2013-03-19 20:54:00,
2013-03-19 16:55:00,27.4,21.5,29.89,West,267,20.0,22.0,78,0.00,,---,0.00,VWS V14.00,2013-03-19 20:55:00,
2013-03-19 16:56:00,27.4,21.5,29.89,West,276,4.0,22.0,78,0.00,,---,0.00,VWS V14.00,2013-03-19 20:56:00,
2013-03-19 16:58:00,27.4,21.5,29.89,WNW,282,16.0,22.0,78,0.00,,---,0.00,VWS V14.00,2013-03-19 20:58:00,
2013-03-19 16:59:00,27.5,21.5,29.89,WNW,289,7.0,17.0,78,0.00,,---,0.00,VWS V14.00,2013-03-19 20:59:00,
2013-03-19 17:00:00,27.5,21.5,29.89,West,272,6.0,17.0,78,0.00,,---,0.00,VWS V14.00,2013-03-19 21:00:00,
2013-03-19 17:04:00,27.4,21.5,29.89,WNW,292,5.0,26.0,78,0.00,,---,0.00,VWS V14.00,2013-03-19 21:04:00,
2013-03-19 17:05:00,27.4,21.1,29.89,NW,315,18.0,26.0,77,0.00,,---,0.00,VWS V14.00,2013-03-19 21:05:00,
2013-03-19 17:08:00,27.6,21.6,29.89,West,265,3.0,26.0,78,0.00,,---,0.00,VWS V14.00,2013-03-19 21:08:00,
2013-03-19 17:10:00,27.7,21.4,29.90,West,281,4.0,26.0,77,0.00,,---,0.00,VWS V14.00,2013-03-19 21:10:00,
2013-03-19 17:11:00,27.7,21.4,29.90,West,279,15.0,26.0,77,0.00,,---,0.00,VWS V14.00,2013-03-19 21:11:00,
2013-03-19 17:13:00,27.8,21.5,29.90,NW,306,9.0,26.0,77,0.00,,---,0.00,VWS V14.00,2013-03-19 21:13:00,
2013-03-19 17:15:00,28.0,21.7,29.89,NW,317,2.0,26.0,77,0.00,,---,0.00,VWS V14.00,2013-03-19 21:15:00,
2013-03-19 17:16:00,28.0,21.7,29.89,WNW,286,11.0,26.0,77,0.00,,---,0.00,VWS V14.00,2013-03-19 21:16:00,
2013-03-19 17:17:00,28.0,21.7,29.89,NW,325,4.0,26.0,77,0.00,,---,0.00,VWS V14.00,2013-03-19 21:17:00,
2013-03-19 17:21:00,28.2,21.6,29.90,WNW,294,3.0,26.0,76,0.00,,---,0.00,VWS V14.00,2013-03-19 21:21:00,
2013-03-19 17:22:00,28.2,21.6,29.89,WNW,292,15.0,26.0,76,0.00,,---,0.00,VWS V14.00,2013-03-19 21:22:00,
2013-03-19 17:26:00,28.4,21.8,29.90,WNW,294,12.0,26.0,76,0.00,,---,0.00,VWS V14.00,2013-03-19 21:26:00,
2013-03-19 17:27:00,28.5,21.6,29.90,NW,321,6.0,26.0,75,0.00,,---,0.00,VWS V14.00,2013-03-19 21:27:00,
2013-03-19 17:28:00,28.5,21.6,29.90,WNW,296,17.0,26.0,75,0.00,,---,0.00,VWS V14.00,2013-03-19 21:28:00,
2013-03-19 17:29:00,28.5,21.6,29.90,WNW,302,14.0,17.0,75,0.00,,---,0.00,VWS V14.00,2013-03-19 21:29:00,
2013-03-19 17:33:00,28.6,21.7,29.90,WNW,298,17.0,17.0,75,0.00,,---,0.00,VWS V14.00,2013-03-19 21:33:00,
2013-03-19 17:34:00,28.7,21.8,29.90,NW,325,15.0,18.0,75,0.00,,---,0.00,VWS V14.00,2013-03-19 21:34:00,
2013-03-19 17:36:00,28.7,21.5,29.90,West,274,14.0,21.0,74,0.00,,---,0.00,VWS V14.00,2013-03-19 21:36:00,
2013-03-19 17:38:00,28.8,21.6,29.90,WNW,291,9.0,21.0,74,0.00,,---,0.00,VWS V14.00,2013-03-19 21:38:00,
2013-03-19 17:40:00,28.8,21.2,29.90,WNW,286,15.0,24.0,73,0.00,,---,0.00,VWS V14.00,2013-03-19 21:40:00,
2013-03-19 17:44:00,29.3,21.7,29.90,NW,315,15.0,24.0,73,0.00,,---,0.00,VWS V14.00,2013-03-19 21:44:00,
2013-03-19 17:45:00,29.5,21.9,29.90,West,281,4.0,24.0,73,0.00,,---,0.00,VWS V14.00,2013-03-19 21:45:00,
2013-03-19 17:47:00,29.7,22.1,29.90,NW,317,16.0,24.0,73,0.00,,---,0.00,VWS V14.00,2013-03-19 21:47:00,
2013-03-19 17:49:00,29.8,21.9,29.90,WNW,284,10.0,24.0,72,0.00,,---,0.00,VWS V14.00,2013-03-19 21:49:00,
2013-03-19 17:51:00,29.8,21.9,29.90,South,188,7.0,24.0,72,0.00,,---,0.00,VWS V14.00,2013-03-19 21:51:00,
2013-03-19 17:53:00,29.7,21.5,29.91,WNW,299,19.0,24.0,71,0.00,,---,0.00,VWS V14.00,2013-03-19 21:53:00,
2013-03-19 17:54:00,29.7,21.5,29.90,WNW,302,9.0,24.0,71,0.00,,---,0.00,VWS V14.00,2013-03-19 21:54:00,
2013-03-19 17:56:00,29.6,21.4,29.90,WNW,299,11.0,24.0,71,0.00,,---,0.00,VWS V14.00,2013-03-19 21:56:00,
2013-03-19 17:58:00,29.6,21.4,29.91,West,269,13.0,16.0,71,0.00,,---,0.00,VWS V14.00,2013-03-19 21:58:00,
2013-03-19 17:59:00,29.7,21.5,29.90,West,268,16.0,24.0,71,0.00,,---,0.00,VWS V14.00,2013-03-19 21:59:00,
2013-03-19 18:01:00,29.8,21.6,29.90,WNW,284,16.0,24.0,71,0.00,,---,0.00,VWS V14.00,2013-03-19 22:01:00,
2013-03-19 18:02:00,29.8,21.6,29.90,NW,321,16.0,24.0,71,0.00,,---,0.00,VWS V14.00,2013-03-19 22:02:00,
2013-03-19 18:04:00,29.8,21.2,29.91,NW,323,12.0,24.0,70,0.00,,---,0.00,VWS V14.00,2013-03-19 22:04:00,
2013-03-19 18:06:00,29.8,21.2,29.91,WNW,296,13.0,24.0,70,0.00,,---,0.00,VWS V14.00,2013-03-19 22:06:00,
2013-03-19 18:09:00,29.8,21.2,29.91,WNW,291,8.0,24.0,70,0.00,,---,0.00,VWS V14.00,2013-03-19 22:09:00,
2013-03-19 18:10:00,29.8,21.2,29.91,WSW,254,6.0,24.0,70,0.00,,---,0.00,VWS V14.00,2013-03-19 22:10:00,
2013-03-19 18:11:00,29.9,21.3,29.91,WNW,286,10.0,24.0,70,0.00,,---,0.00,VWS V14.00,2013-03-19 22:11:00,
2013-03-19 18:12:00,29.9,21.3,29.91,West,277,12.0,24.0,70,0.00,,---,0.00,VWS V14.00,2013-03-19 22:12:00,
2013-03-19 18:16:00,29.9,21.0,29.91,WSW,257,2.0,24.0,69,0.00,,---,0.00,VWS V14.00,2013-03-19 22:16:00,
2013-03-19 18:17:00,30.0,21.1,29.91,West,273,12.0,24.0,69,0.00,,---,0.00,VWS V14.00,2013-03-19 22:17:00,
2013-03-19 18:18:00,29.9,21.0,29.91,West,271,14.0,24.0,69,0.00,,---,0.00,VWS V14.00,2013-03-19 22:18:00,
2013-03-19 18:22:00,29.7,20.5,29.91,WNW,292,17.0,24.0,68,0.00,,---,0.00,VWS V14.00,2013-03-19 22:22:00,
2013-03-19 18:24:00,29.7,20.5,29.91,WNW,295,18.0,24.0,68,0.00,,---,0.00,VWS V14.00,2013-03-19 22:24:00,
2013-03-19 18:25:00,29.6,20.4,29.91,WNW,302,18.0,24.0,68,0.00,,---,0.00,VWS V14.00,2013-03-19 22:25:00,
2013-03-19 18:28:00,29.6,20.4,29.91,WNW,302,6.0,24.0,68,0.00,,---,0.00,VWS V14.00,2013-03-19 22:28:00,
2013-03-19 18:29:00,29.6,20.4,29.91,NW,310,9.0,17.0,68,0.00,,---,0.00,VWS V14.00,2013-03-19 22:29:00,
2013-03-19 18:30:00,29.7,20.5,29.91,NW,304,6.0,17.0,68,0.00,,---,0.00,VWS V14.00,2013-03-19 22:30:00,
2013-03-19 18:34:00,29.8,20.5,29.92,NW,317,9.0,17.0,68,0.00,,---,0.00,VWS V14.00,2013-03-19 22:34:00,
2013-03-19 18:35:00,29.8,20.5,29.91,West,277,6.0,22.0,68,0.00,,---,0.00,VWS V14.00,2013-03-19 22:35:00,
2013-03-19 18:36:00,29.8,20.5,29.91,West,281,9.0,22.0,68,0.00,,---,0.00,VWS V14.00,2013-03-19 22:36:00,
2013-03-19 18:38:00,29.8,20.2,29.92,West,273,5.0,22.0,67,0.00,,---,0.00,VWS V14.00,2013-03-19 22:38:00,
2013-03-19 18:41:00,29.8,20.2,29.92,NW,306,14.0,27.0,67,0.00,,---,0.00,VWS V14.00,2013-03-19 22:41:00,
2013-03-19 18:43:00,29.8,20.2,29.92,NW,305,5.0,27.0,67,0.00,,---,0.00,VWS V14.00,2013-03-19 22:43:00,
2013-03-19 18:45:00,29.8,20.2,29.92,NNW,330,6.0,27.0,67,0.00,,---,0.00,VWS V14.00,2013-03-19 22:45:00,
2013-03-19 18:47:00,29.8,20.2,29.92,NW,305,12.0,27.0,67,0.00,,---,0.00,VWS V14.00,2013-03-19 22:47:00,
2013-03-19 18:50:00,29.9,19.9,29.92,WNW,284,18.0,27.0,66,0.00,,---,0.00,VWS V14.00,2013-03-19 22:50:00,
2013-03-19 18:52:00,29.9,19.9,29.92,West,259,10.0,27.0,66,0.00,,---,0.00,VWS V14.00,2013-03-19 22:52:00,
2013-03-19 18:53:00,29.9,19.9,29.92,NNW,329,6.0,27.0,66,0.00,,---,0.00,VWS V14.00,2013-03-19 22:53:00,
2013-03-19 18:56:00,30.1,20.1,29.92,WNW,286,9.0,27.0,66,0.00,,---,0.00,VWS V14.00,2013-03-19 22:56:00,
2013-03-19 18:57:00,30.2,20.2,29.92,WNW,284,18.0,27.0,66,0.00,,---,0.00,VWS V14.00,2013-03-19 22:57:00,
2013-03-19 18:59:00,30.2,19.9,29.92,West,271,18.0,24.0,65,0.00,,---,0.00,VWS V14.00,2013-03-19 22:59:00,
2013-03-19 19:01:00,30.2,19.9,29.92,NW,309,18.0,24.0,65,0.00,,---,0.00,VWS V14.00,2013-03-19 23:01:00,
2013-03-19 19:03:00,30.3,20.0,29.92,WNW,294,6.0,26.0,65,0.00,,---,0.00,VWS V14.00,2013-03-19 23:03:00,
2013-03-19 19:05:00,30.2,19.5,29.92,NW,321,18.0,26.0,64,0.00,,---,0.00,VWS V14.00,2013-03-19 23:05:00,
2013-03-19 19:06:00,30.2,19.5,29.92,WNW,283,9.0,26.0,64,0.00,,---,0.00,VWS V14.00,2013-03-19 23:06:00,
2013-03-19 19:08:00,30.1,19.4,29.92,NW,318,18.0,26.0,64,0.00,,---,0.00,VWS V14.00,2013-03-19 23:08:00,
2013-03-19 19:11:00,30.2,19.5,29.92,West,267,3.0,26.0,64,0.00,,---,0.00,VWS V14.00,2013-03-19 23:11:00,
2013-03-19 19:12:00,30.2,19.5,29.92,WNW,283,9.0,26.0,64,0.00,,---,0.00,VWS V14.00,2013-03-19 23:12:00,
2013-03-19 19:13:00,30.2,19.5,29.92,WNW,299,13.0,26.0,64,0.00,,---,0.00,VWS V14.00,2013-03-19 23:13:00,
2013-03-19 19:17:00,30.2,19.5,29.92,WSW,250,6.0,26.0,64,0.00,,---,0.00,VWS V14.00,2013-03-19 23:17:00,
2013-03-19 19:18:00,30.2,19.5,29.92,NW,311,8.0,26.0,64,0.00,,---,0.00,VWS V14.00,2013-03-19 23:18:00,
2013-03-19 19:19:00,30.2,19.1,29.92,West,269,13.0,26.0,63,0.00,,---,0.00,VWS V14.00,2013-03-19 23:19:00,
2013-03-19 19:22:00,30.2,19.1,29.92,WNW,291,6.0,26.0,63,0.00,,---,0.00,VWS V14.00,2013-03-19 23:22:00,
2013-03-19 19:25:00,30.1,19.0,29.93,WNW,300,14.0,26.0,63,0.00,,---,0.00,VWS V14.00,2013-03-19 23:25:00,
2013-03-19 19:26:00,30.1,19.0,29.92,WNW,287,21.0,26.0,63,0.00,,---,0.00,VWS V14.00,2013-03-19 23:26:00,
2013-03-19 19:27:00,30.1,19.0,29.93,NW,306,4.0,26.0,63,0.00,,---,0.00,VWS V14.00,2013-03-19 23:27:00,
2013-03-19 19:28:00,30.1,19.0,29.93,WNW,288,4.0,26.0,63,0.00,,---,0.00,VWS V14.00,2013-03-19 23:28:00,
2013-03-19 19:30:00,30.1,19.0,29.93,WNW,286,16.0,22.0,63,0.00,,---,0.00,VWS V14.00,2013-03-19 23:30:00,
2013-03-19 19:31:00,30.1,19.0,29.93,NW,321,18.0,22.0,63,0.00,,---,0.00,VWS V14.00,2013-03-19 23:31:00,
2013-03-19 19:32:00,30.1,19.0,29.93,NW,315,2.0,22.0,63,0.00,,---,0.00,VWS V14.00,2013-03-19 23:32:00,
2013-03-19 19:33:00,30.1,19.0,29.93,NW,305,5.0,22.0,63,0.00,,---,0.00,VWS V14.00,2013-03-19 23:33:00,
2013-03-19 19:35:00,30.0,19.0,29.93,WNW,293,18.0,22.0,63,0.00,,---,0.00,VWS V14.00,2013-03-19 23:35:00,
2013-03-19 19:37:00,29.9,18.9,29.93,NW,315,6.0,30.0,63,0.00,,---,0.00,VWS V14.00,2013-03-19 23:37:00,
2013-03-19 19:38:00,29.9,18.9,29.93,WNW,290,5.0,30.0,63,0.00,,---,0.00,VWS V14.00,2013-03-19 23:38:00,
2013-03-19 19:39:00,29.9,18.9,29.93,West,281,4.0,30.0,63,0.00,,---,0.00,VWS V14.00,2013-03-19 23:39:00,
2013-03-19 19:41:00,29.8,18.8,29.93,WNW,294,18.0,30.0,63,0.00,,---,0.00,VWS V14.00,2013-03-19 23:41:00,
2013-03-19 19:44:00,29.8,18.8,29.93,WNW,294,13.0,30.0,63,0.00,,---,0.00,VWS V14.00,2013-03-19 23:44:00,
2013-03-19 19:45:00,29.7,18.7,29.93,WNW,299,3.0,30.0,63,0.00,,---,0.00,VWS V14.00,2013-03-19 23:45:00,
2013-03-19 19:47:00,29.7,18.7,29.93,WNW,303,4.0,30.0,63,0.00,,---,0.00,VWS V14.00,2013-03-19 23:47:00,
2013-03-19 19:50:00,29.5,18.5,29.93,WNW,302,3.0,30.0,63,0.00,,---,0.00,VWS V14.00,2013-03-19 23:50:00,
2013-03-19 19:51:00,29.5,18.5,29.93,WNW,291,7.0,30.0,63,0.00,,---,0.00,VWS V14.00,2013-03-19 23:51:00,
2013-03-19 19:54:00,29.4,18.4,29.93,West,275,14.0,30.0,63,0.00,,---,0.00,VWS V14.00,2013-03-19 23:54:00,
2013-03-19 19:56:00,29.3,18.3,29.94,NW,306,6.0,30.0,63,0.00,,---,0.00,VWS V14.00,2013-03-19 23:56:00,
2013-03-19 19:57:00,29.3,18.3,29.94,NW,309,9.0,30.0,63,0.00,,---,0.00,VWS V14.00,2013-03-19 23:57:00,
2013-03-19 19:59:00,29.3,18.3,29.94,West,281,16.0,24.0,63,0.00,,---,0.00,VWS V14.00,2013-03-19 23:59:00,
2013-03-19 20:00:00,29.3,18.3,29.94,WNW,292,7.0,24.0,63,0.00,,---,0.00,VWS V14.00,2013-03-20 00:00:00,
2013-03-19 20:02:00,29.3,18.3,29.94,West,278,17.0,24.0,63,0.00,,---,0.00,VWS V14.00,2013-03-20 00:02:00,
2013-03-19 20:04:00,29.3,18.3,29.94,WNW,294,11.0,24.0,63,0.00,,---,0.00,VWS V14.00,2013-03-20 00:04:00,
2013-03-19 20:07:00,29.2,18.2,29.94,WNW,302,6.0,24.0,63,0.00,,---,0.00,VWS V14.00,2013-03-20 00:07:00,
2013-03-19 20:08:00,29.2,18.2,29.94,NW,308,18.0,24.0,63,0.00,,---,0.00,VWS V14.00,2013-03-20 00:08:00,
2013-03-19 20:10:00,29.2,18.2,29.94,NW,309,4.0,24.0,63,0.00,,---,0.00,VWS V14.00,2013-03-20 00:10:00,
2013-03-19 20:13:00,29.2,18.5,29.94,WNW,283,5.0,25.0,64,0.00,,---,0.00,VWS V14.00,2013-03-20 00:13:00,
2013-03-19 20:15:00,29.1,18.5,29.94,NW,310,5.0,25.0,64,0.00,,---,0.00,VWS V14.00,2013-03-20 00:15:00,
2013-03-19 20:17:00,29.1,18.5,29.94,WNW,284,4.0,25.0,64,0.00,,---,0.00,VWS V14.00,2013-03-20 00:17:00,
2013-03-19 20:18:00,29.1,18.5,29.94,WNW,296,4.0,25.0,64,0.00,,---,0.00,VWS V14.00,2013-03-20 00:18:00,
2013-03-19 20:19:00,29.1,18.5,29.94,WNW,299,2.0,25.0,64,0.00,,---,0.00,VWS V14.00,2013-03-20 00:19:00,
2013-03-19 20:23:00,29.0,18.4,29.94,NW,309,17.0,25.0,64,0.00,,---,0.00,VWS V14.00,2013-03-20 00:23:00,
2013-03-19 20:24:00,29.0,18.4,29.94,WNW,291,3.0,25.0,64,0.00,,---,0.00,VWS V14.00,2013-03-20 00:24:00,
2013-03-19 20:25:00,29.0,18.4,29.94,NW,325,6.0,25.0,64,0.00,,---,0.00,VWS V14.00,2013-03-20 00:25:00,
2013-03-19 20:26:00,29.0,18.4,29.94,West,273,6.0,25.0,64,0.00,,---,0.00,VWS V14.00,2013-03-20 00:26:00,
2013-03-19 20:29:00,28.9,18.3,29.94,NW,315,2.0,12.0,64,0.00,,---,0.00,VWS V14.00,2013-03-20 00:29:00,
2013-03-19 20:32:00,28.9,18.3,29.94,West,279,10.0,12.0,64,0.00,,---,0.00,VWS V14.00,2013-03-20 00:32:00,
2013-03-19 20:33:00,28.8,18.2,29.94,NNW,333,6.0,12.0,64,0.00,,---,0.00,VWS V14.00,2013-03-20 00:33:00,
2013-03-19 20:35:00,28.8,18.2,29.95,NW,322,3.0,12.0,64,0.00,,---,0.00,VWS V14.00,2013-03-20 00:35:00,
2013-03-19 20:38:00,28.8,18.5,29.95,NW,304,14.0,15.0,65,0.00,,---,0.00,VWS V14.00,2013-03-20 00:38:00,
2013-03-19 20:39:00,28.8,18.5,29.95,NW,326,2.0,15.0,65,0.00,,---,0.00,VWS V14.00,2013-03-20 00:39:00,
2013-03-19 20:41:00,28.7,18.4,29.95,WNW,293,6.0,15.0,65,0.00,,---,0.00,VWS V14.00,2013-03-20 00:41:00,
2013-03-19 20:43:00,28.7,18.4,29.95,NW,317,5.0,15.0,65,0.00,,---,0.00,VWS V14.00,2013-03-20 00:43:00,
2013-03-19 20:44:00,28.7,18.4,29.95,WNW,302,12.0,15.0,65,0.00,,---,0.00,VWS V14.00,2013-03-20 00:44:00,
2013-03-19 20:45:00,28.7,18.4,29.95,WNW,302,10.0,15.0,65,0.00,,---,0.00,VWS V14.00,2013-03-20 00:45:00,
2013-03-19 20:47:00,28.7,18.4,29.95,NW,306,9.0,18.0,65,0.00,,---,0.00,VWS V14.00,2013-03-20 00:47:00,
2013-03-19 20:49:00,28.7,18.8,29.95,West,273,11.0,18.0,66,0.00,,---,0.00,VWS V14.00,2013-03-20 00:49:00,
2013-03-19 20:50:00,28.7,18.8,29.95,NW,317,9.0,18.0,66,0.00,,---,0.00,VWS V14.00,2013-03-20 00:50:00,
2013-03-19 20:52:00,28.7,18.8,29.95,West,269,5.0,18.0,66,0.00,,---,0.00,VWS V14.00,2013-03-20 00:52:00,
2013-03-19 20:54:00,28.7,18.8,29.95,NW,318,9.0,18.0,66,0.00,,---,0.00,VWS V14.00,2013-03-20 00:54:00,
2013-03-19 20:55:00,28.7,18.8,29.95,WNW,300,5.0,18.0,66,0.00,,---,0.00,VWS V14.00,2013-03-20 00:55:00,
2013-03-19 20:57:00,28.7,18.8,29.95,WNW,292,4.0,18.0,66,0.00,,---,0.00,VWS V14.00,2013-03-20 00:57:00,
2013-03-19 21:00:00,28.7,18.8,29.95,NW,309,10.0,10.0,66,0.00,,---,0.00,VWS V14.00,2013-03-20 01:00:00,
2013-03-19 21:01:00,28.7,18.8,29.95,West,277,12.0,12.0,66,0.00,,---,0.00,VWS V14.00,2013-03-20 01:01:00,
2013-03-19 21:03:00,28.7,18.8,29.95,NW,309,8.0,12.0,66,0.00,,---,0.00,VWS V14.00,2013-03-20 01:03:00,
2013-03-19 21:06:00,28.7,18.4,29.95,WNW,286,4.0,12.0,65,0.00,,---,0.00,VWS V14.00,2013-03-20 01:06:00,
2013-03-19 21:07:00,28.6,18.3,29.95,NW,304,6.0,12.0,65,0.00,,---,0.00,VWS V14.00,2013-03-20 01:07:00,
2013-03-19 21:08:00,28.6,18.3,29.95,NW,314,4.0,12.0,65,0.00,,---,0.00,VWS V14.00,2013-03-20 01:08:00,
2013-03-19 21:09:00,28.6,18.3,29.95,NNW,331,3.0,12.0,65,0.00,,---,0.00,VWS V14.00,2013-03-20 01:09:00,
2013-03-19 21:12:00,28.6,18.7,29.95,NNW,328,15.0,15.0,66,0.00,,---,0.00,VWS V14.00,2013-03-20 01:12:00,
2013-03-19 21:14:00,28.6,18.3,29.95,NNW,328,6.0,18.0,65,0.00,,---,0.00,VWS V14.00,2013-03-20 01:14:00,
2013-03-19 21:16:00,28.6,18.3,29.95,NW,313,5.0,18.0,65,0.00,,---,0.00,VWS V14.00,2013-03-20 01:16:00,
2013-03-19 21:19:00,28.7,18.4,29.95,NW,306,4.0,18.0,65,0.00,,---,0.00,VWS V14.00,2013-03-20 01:19:00,
2013-03-19 21:20:00,28.7,18.4,29.95,NW,307,10.0,18.0,65,0.00,,---,0.00,VWS V14.00,2013-03-20 01:20:00,
2013-03-19 21:21:00,28.7,18.4,29.95,NW,315,12.0,18.0,65,0.00,,---,0.00,VWS V14.00,2013-03-20 01:21:00,
2013-03-19 21:22:00,28.7,18.4,29.95,WNW,296,11.0,18.0,65,0.00,,---,0.00,VWS V14.00,2013-03-20 01:22:00,
2013-03-19 21:25:00,28.7,18.4,29.95,WNW,299,4.0,18.0,65,0.00,,---,0.00,VWS V14.00,2013-03-20 01:25:00,
2013-03-19 21:27:00,28.6,18.3,29.96,NW,309,2.0,18.0,65,0.00,,---,0.00,VWS V14.00,2013-03-20 01:27:00,
2013-03-19 21:31:00,28.6,18.7,29.96,NW,304,4.0,7.0,66,0.00,,---,0.00,VWS V14.00,2013-03-20 01:31:00,
2013-03-19 21:32:00,28.6,18.7,29.96,NW,310,4.0,11.0,66,0.00,,---,0.00,VWS V14.00,2013-03-20 01:32:00,
2013-03-19 21:33:00,28.6,18.7,29.96,NW,311,3.0,11.0,66,0.00,,---,0.00,VWS V14.00,2013-03-20 01:33:00,
2013-03-19 21:37:00,28.6,18.7,29.96,NW,317,6.0,18.0,66,0.00,,---,0.00,VWS V14.00,2013-03-20 01:37:00,
2013-03-19 21:38:00,28.7,18.8,29.96,NW,309,9.0,18.0,66,0.00,,---,0.00,VWS V14.00,2013-03-20 01:38:00,
2013-03-19 21:39:00,28.7,18.8,29.96,WNW,295,10.0,18.0,66,0.00,,---,0.00,VWS V14.00,2013-03-20 01:39:00,
2013-03-19 21:40:00,28.7,18.8,29.96,NNW,336,7.0,18.0,66,0.00,,---,0.00,VWS V14.00,2013-03-20 01:40:00,
2013-03-19 21:42:00,28.7,18.8,29.96,NW,315,5.0,18.0,66,0.00,,---,0.00,VWS V14.00,2013-03-20 01:42:00,
2013-03-19 21:43:00,28.7,18.8,29.96,NNW,329,6.0,18.0,66,0.00,,---,0.00,VWS V14.00,2013-03-20 01:43:00,
2013-03-19 21:45:00,28.7,18.8,29.96,NW,307,3.0,18.0,66,0.00,,---,0.00,VWS V14.00,2013-03-20 01:45:00,
2013-03-19 21:47:00,28.7,18.8,29.96,NW,307,6.0,18.0,66,0.00,,---,0.00,VWS V14.00,2013-03-20 01:47:00,
2013-03-19 21:49:00,28.8,18.9,29.96,NW,306,4.0,18.0,66,0.00,,---,0.00,VWS V14.00,2013-03-20 01:49:00,
2013-03-19 21:51:00,28.8,18.9,29.96,WNW,291,11.0,18.0,66,0.00,,---,0.00,VWS V14.00,2013-03-20 01:51:00,
2013-03-19 21:52:00,28.8,18.9,29.96,WNW,298,4.0,18.0,66,0.00,,---,0.00,VWS V14.00,2013-03-20 01:52:00,
2013-03-19 21:53:00,28.9,19.0,29.96,NW,317,5.0,18.0,66,0.00,,---,0.00,VWS V14.00,2013-03-20 01:53:00,
2013-03-19 21:56:00,28.9,19.0,29.96,WNW,297,2.0,18.0,66,0.00,,---,0.00,VWS V14.00,2013-03-20 01:56:00,
2013-03-19 21:57:00,28.9,19.0,29.96,WNW,299,6.0,18.0,66,0.00,,---,0.00,VWS V14.00,2013-03-20 01:57:00,
2013-03-19 22:00:00,29.0,19.1,29.96,NW,323,7.0,9.0,66,0.00,,---,0.00,VWS V14.00,2013-03-20 02:00:00,
2013-03-19 22:01:00,29.0,19.1,29.96,NW,312,11.0,17.0,66,0.00,,---,0.00,VWS V14.00,2013-03-20 02:01:00,
2013-03-19 22:02:00,29.0,19.1,29.96,WNW,292,17.0,17.0,66,0.00,,---,0.00,VWS V14.00,2013-03-20 02:02:00,
2013-03-19 22:03:00,29.0,19.1,29.97,NNW,331,4.0,17.0,66,0.00,,---,0.00,VWS V14.00,2013-03-20 02:03:00,
2013-03-19 22:06:00,29.0,19.1,29.96,NW,304,18.0,18.0,66,0.00,,---,0.00,VWS V14.00,2013-03-20 02:06:00,
2013-03-19 22:07:00,29.1,19.2,29.96,WNW,295,9.0,18.0,66,0.00,,---,0.00,VWS V14.00,2013-03-20 02:07:00,
2013-03-19 22:10:00,29.2,19.3,29.97,NNW,333,10.0,18.0,66,0.00,,---,0.00,VWS V14.00,2013-03-20 02:10:00,
2013-03-19 22:12:00,29.2,19.3,29.97,West,273,4.0,18.0,66,0.00,,---,0.00,VWS V14.00,2013-03-20 02:12:00,
2013-03-19 22:14:00,29.2,18.9,29.97,NW,308,9.0,18.0,65,0.00,,---,0.00,VWS V14.00,2013-03-20 02:14:00,
2013-03-19 22:15:00,29.2,18.9,29.97,NW,304,4.0,18.0,65,0.00,,---,0.00,VWS V14.00,2013-03-20 02:15:00,
2013-03-19 22:16:00,29.2,18.9,29.97,WNW,285,6.0,18.0,65,0.00,,---,0.00,VWS V14.00,2013-03-20 02:16:00,
2013-03-19 22:17:00,29.2,18.9,29.97,NW,313,2.0,18.0,65,0.00,,---,0.00,VWS V14.00,2013-03-20 02:17:00,
2013-03-19 22:20:00,29.1,18.8,29.97,WNW,302,4.0,18.0,65,0.00,,---,0.00,VWS V14.00,2013-03-20 02:20:00,
2013-03-19 22:22:00,29.2,18.9,29.97,NW,304,6.0,18.0,65,0.00,,---,0.00,VWS V14.00,2013-03-20 02:22:00,
2013-03-19 22:24:00,29.2,18.9,29.97,NNW,342,0.0,18.0,65,0.00,,---,0.00,VWS V14.00,2013-03-20 02:24:00,
2013-03-19 22:25:00,29.1,18.8,29.97,WNW,286,4.0,18.0,65,0.00,,---,0.00,VWS V14.00,2013-03-20 02:25:00,
2013-03-19 22:28:00,29.1,19.2,29.97,NW,304,4.0,18.0,66,0.00,,---,0.00,VWS V14.00,2013-03-20 02:28:00,
2013-03-19 22:29:00,29.1,19.2,29.97,WNW,296,3.0,8.0,66,0.00,,---,0.00,VWS V14.00,2013-03-20 02:29:00,
2013-03-19 22:30:00,29.0,19.1,29.97,WNW,292,6.0,9.0,66,0.00,,---,0.00,VWS V14.00,2013-03-20 02:30:00,
2013-03-19 22:34:00,29.1,19.2,29.97,NW,323,0.0,12.0,66,0.00,,---,0.00,VWS V14.00,2013-03-20 02:34:00,
2013-03-19 22:35:00,29.1,19.2,29.97,WNW,299,8.0,12.0,66,0.00,,---,0.00,VWS V14.00,2013-03-20 02:35:00,
2013-03-19 22:37:00,29.1,19.2,29.97,WNW,301,4.0,12.0,66,0.00,,---,0.00,VWS V14.00,2013-03-20 02:37:00,
2013-03-19 22:38:00,29.1,19.2,29.97,WNW,294,3.0,12.0,66,0.00,,---,0.00,VWS V14.00,2013-03-20 02:38:00,
2013-03-19 22:42:00,29.2,18.9,29.97,NNW,331,3.0,18.0,65,0.00,,---,0.00,VWS V14.00,2013-03-20 02:42:00,
2013-03-19 22:43:00,29.2,18.9,29.97,NW,309,5.0,18.0,65,0.00,,---,0.00,VWS V14.00,2013-03-20 02:43:00,
2013-03-19 22:45:00,29.3,19.0,29.97,NW,318,7.0,18.0,65,0.00,,---,0.00,VWS V14.00,2013-03-20 02:45:00,
2013-03-19 22:50:00,29.3,19.0,29.97,WNW,303,3.0,18.0,65,0.00,,---,0.00,VWS V14.00,2013-03-20 02:50:00,
2013-03-19 22:51:00,29.3,19.0,29.97,WNW,287,3.0,18.0,65,0.00,,---,0.00,VWS V14.00,2013-03-20 02:51:00,
2013-03-19 22:52:00,29.3,19.0,29.97,West,279,4.0,18.0,65,0.00,,---,0.00,VWS V14.00,2013-03-20 02:52:00,
2013-03-19 22:56:00,29.4,19.1,29.97,NW,307,3.0,18.0,65,0.00,,---,0.00,VWS V14.00,2013-03-20 02:56:00,
2013-03-19 22:57:00,29.4,19.1,29.97,NW,304,6.0,18.0,65,0.00,,---,0.00,VWS V14.00,2013-03-20 02:57:00,
2013-03-19 22:59:00,29.4,19.1,29.97,WNW,288,7.0,17.0,65,0.00,,---,0.00,VWS V14.00,2013-03-20 02:59:00,
2013-03-19 23:02:00,29.4,19.1,29.97,NW,304,4.0,17.0,65,0.00,,---,0.00,VWS V14.00,2013-03-20 03:02:00,
2013-03-19 23:04:00,29.4,19.1,29.97,NW,304,17.0,19.0,65,0.00,,---,0.00,VWS V14.00,2013-03-20 03:04:00,
2013-03-19 23:05:00,29.4,19.1,29.97,NW,312,13.0,19.0,65,0.00,,---,0.00,VWS V14.00,2013-03-20 03:05:00,
2013-03-19 23:08:00,29.4,18.7,29.97,WNW,291,7.0,21.0,64,0.00,,---,0.00,VWS V14.00,2013-03-20 03:08:00,
2013-03-19 23:10:00,29.4,18.7,29.97,NW,307,13.0,21.0,64,0.00,,---,0.00,VWS V14.00,2013-03-20 03:10:00,
2013-03-19 23:12:00,29.4,18.7,29.97,NW,304,5.0,21.0,64,0.00,,---,0.00,VWS V14.00,2013-03-20 03:12:00,
2013-03-19 23:13:00,29.5,18.8,29.97,WNW,302,9.0,21.0,64,0.00,,---,0.00,VWS V14.00,2013-03-20 03:13:00,
2013-03-19 23:14:00,29.5,18.8,29.97,NNW,333,17.0,21.0,64,0.00,,---,0.00,VWS V14.00,2013-03-20 03:14:00,
2013-03-19 23:16:00,29.5,18.8,29.97,NW,325,18.0,21.0,64,0.00,,---,0.00,VWS V14.00,2013-03-20 03:16:00,
2013-03-19 23:18:00,29.5,18.8,29.97,WNW,295,4.0,21.0,64,0.00,,---,0.00,VWS V14.00,2013-03-20 03:18:00,
2013-03-19 23:20:00,29.5,18.8,29.97,NW,311,5.0,21.0,64,0.00,,---,0.00,VWS V14.00,2013-03-20 03:20:00,
2013-03-19 23:21:00,29.5,18.8,29.97,NW,311,6.0,21.0,64,0.00,,---,0.00,VWS V14.00,2013-03-20 03:21:00,
2013-03-19 23:25:00,29.4,18.7,29.97,WNW,292,9.0,21.0,64,0.00,,---,0.00,VWS V14.00,2013-03-20 03:25:00,
2013-03-19 23:27:00,29.4,18.7,29.98,WNW,299,8.0,21.0,64,0.00,,---,0.00,VWS V14.00,2013-03-20 03:27:00,
2013-03-19 23:30:00,29.4,18.7,29.97,NW,318,10.0,12.0,64,0.00,,---,0.00,VWS V14.00,2013-03-20 03:30:00,
2013-03-19 23:31:00,29.4,18.7,29.97,NW,309,3.0,12.0,64,0.00,,---,0.00,VWS V14.00,2013-03-20 03:31:00,
2013-03-19 23:32:00,29.3,18.6,29.97,WNW,296,7.0,15.0,64,0.00,,---,0.00,VWS V14.00,2013-03-20 03:32:00,
2013-03-19 23:34:00,29.3,18.6,29.97,WNW,300,4.0,17.0,64,0.00,,---,0.00,VWS V14.00,2013-03-20 03:34:00,
2013-03-19 23:35:00,29.2,18.5,29.97,NW,312,13.0,17.0,64,0.00,,---,0.00,VWS V14.00,2013-03-20 03:35:00,
2013-03-19 23:37:00,29.2,18.5,29.97,NW,309,20.0,20.0,64,0.00,,---,0.00,VWS V14.00,2013-03-20 03:37:00,
2013-03-19 23:39:00,29.3,18.6,29.97,West,273,4.0,20.0,64,0.00,,---,0.00,VWS V14.00,2013-03-20 03:39:00,
2013-03-19 23:40:00,29.3,18.6,29.97,West,281,13.0,20.0,64,0.00,,---,0.00,VWS V14.00,2013-03-20 03:40:00,
2013-03-19 23:42:00,29.2,18.5,29.97,NW,310,7.0,20.0,64,0.00,,---,0.00,VWS V14.00,2013-03-20 03:42:00,
2013-03-19 23:43:00,29.2,18.5,29.97,NW,310,11.0,20.0,64,0.00,,---,0.00,VWS V14.00,2013-03-20 03:43:00,
2013-03-19 23:45:00,29.2,18.5,29.97,WNW,287,9.0,20.0,64,0.00,,---,0.00,VWS V14.00,2013-03-20 03:45:00,
2013-03-19 23:46:00,29.2,18.5,29.97,NW,309,7.0,20.0,64,0.00,,---,0.00,VWS V14.00,2013-03-20 03:46:00,
2013-03-19 23:48:00,29.2,18.5,29.97,WNW,300,12.0,20.0,64,0.00,,---,0.00,VWS V14.00,2013-03-20 03:48:00,
2013-03-19 23:50:00,29.1,18.5,29.97,NW,324,17.0,28.0,64,0.00,,---,0.00,VWS V14.00,2013-03-20 03:50:00,
2013-03-19 23:52:00,29.1,18.5,29.97,WNW,294,15.0,28.0,64,0.00,,---,0.00,VWS V14.00,2013-03-20 03:52:00,
2013-03-19 23:53:00,29.1,18.5,29.97,NW,317,9.0,28.0,64,0.00,,---,0.00,VWS V14.00,2013-03-20 03:53:00,
2013-03-19 23:54:00,29.1,18.5,29.97,NW,309,10.0,28.0,64,0.00,,---,0.00,VWS V14.00,2013-03-20 03:54:00,
2013-03-19 23:56:00,29.0,18.4,29.97,NNW,331,11.0,28.0,64,0.00,,---,0.00,VWS V14.00,2013-03-20 03:56:00,
2013-03-19 23:58:00,29.0,18.4,29.97,NW,308,4.0,28.0,64,0.00,,---,0.00,VWS V14.00,2013-03-20 03:58:00,